Observation data for Earth on 12/08/2018      Previous  Date       Current Mesonet Observations  Soil Data  Daily Summary Page  Observations in Plain Language
KEA1 080600Z 05007KT 00/M03 A3028 RMK A01 T00011027  RH  082%=      5-min Rain = 0
KEA1 080601Z 05007KT 00/M03 A3028 RMK A01 T00011026  RH  082%=      5-min Rain = 0
KEA1 080602Z 04008KT 00/M03 A3028 RMK A01 T00021026  RH  082%=      5-min Rain = 0
KEA1 080603Z 04008KT 00/M03 A3028 RMK A01 T00011026  RH  082%=      5-min Rain = 0
KEA1 080604Z 04007KT 00/M03 A3028 RMK A01 T00011026  RH  082%=      5-min Rain = 0
KEA1 080605Z 04006KT 00/M03 A3028 RMK A01 T00011026  RH  082%=      5-min Rain = 0
KEA1 080606Z 04008KT 00/M03 A3028 RMK A01 T00011026  RH  082%=      5-min Rain = 0
KEA1 080607Z 04006KT 00/M03 A3028 RMK A01 T00011026  RH  082%=      5-min Rain = 0
KEA1 080608Z 04007KT 00/M03 A3028 RMK A01 T00011026  RH  082%=      5-min Rain = 0
KEA1 080609Z 04007KT 00/M03 A3029 RMK A01 T00011026  RH  082%=      5-min Rain = 0
KEA1 080610Z 04006KT 00/M03 A3029 RMK A01 T00011025  RH  082%=      5-min Rain = 0
KEA1 080611Z 04008KT 00/M03 A3029 RMK A01 T00011025  RH  082%=      5-min Rain = 0
KEA1 080612Z 04008KT 00/M03 A3029 RMK A01 T00021026  RH  082%=      5-min Rain = 0
KEA1 080613Z 04009KT 00/M03 A3028 RMK A01 T00011026  RH  082%=      5-min Rain = 0
KEA1 080614Z 04008KT 00/M03 A3028 RMK A01 T00011026  RH  082%=      5-min Rain = 0
KEA1 080615Z 04009KT 00/M03 A3028 RMK A01 T00011026  RH  082%=      5-min Rain = 0
KEA1 080616Z 04009KT 00/M03 A3028 RMK A01 T00011027  RH  082%=      5-min Rain = 0
KEA1 080617Z 04009KT 00/M03 A3028 RMK A01 T00011026  RH  082%=      5-min Rain = 0
KEA1 080618Z 04008KT 00/M03 A3028 RMK A01 T00011026  RH  082%=      5-min Rain = 0
KEA1 080619Z 04009KT 00/03 A3028 RMK A01 T00000-26  RH  082%=      5-min Rain = 0
KEA1 080620Z 04008KT 00/03 A3028 RMK A01 T00000-26  RH  083%=      5-min Rain = 0
KEA1 080621Z 04009KT 00/03 A3028 RMK A01 T00000-26  RH  083%=      5-min Rain = 0
KEA1 080622Z 04009KT 00/03 A3028 RMK A01 T00000-25  RH  083%=      5-min Rain = 0
KEA1 080623Z 04010KT 00/03 A3028 RMK A01 T00-00-25  RH  083%=      5-min Rain = 0
KEA1 080624Z 03010KT 00/03 A3028 RMK A01 T00-00-26  RH  083%=      5-min Rain = 0
KEA1 080625Z 04010KT 00/03 A3028 RMK A01 T00000-26  RH  083%=      5-min Rain = 0
KEA1 080626Z 04010KT 00/03 A3028 RMK A01 T00-00-26  RH  083%=      5-min Rain = 0
KEA1 080627Z 05008KT M00/M03 A3028 RMK A01 T10011027  RH  083%=      5-min Rain = 0
KEA1 080628Z 05009KT M00/M03 A3028 RMK A01 T10011026  RH  083%=      5-min Rain = 0
KEA1 080629Z 04009KT M00/M03 A3028 RMK A01 T10011026  RH  084%=      5-min Rain = 0
KEA1 080630Z 05008KT M00/M03 A3028 RMK A01 T10021025  RH  084%=      5-min Rain = 0
KEA1 080631Z 05009KT M00/M02 A3028 RMK A01 T10021024  RH  085%=      5-min Rain = 0
KEA1 080632Z 05008KT M00/M02 A3028 RMK A01 T10021024  RH  085%=      5-min Rain = 0
KEA1 080633Z 04008KT M00/M02 A3028 RMK A01 T10031024  RH  086%=      5-min Rain = 0
KEA1 080634Z 04009KT M00/M02 A3028 RMK A01 T10031023  RH  086%=      5-min Rain = 0
KEA1 080635Z 05008KT M00/M02 A3028 RMK A01 T10031023  RH  087%=      5-min Rain = 0
KEA1 080636Z 04009KT M00/M02 A3028 RMK A01 T10031022  RH  088%=      5-min Rain = 0
KEA1 080637Z 04009KT M00/M02 A3028 RMK A01 T10041021  RH  088%=      5-min Rain = 0
KEA1 080638Z 04008KT M00/M02 A3028 RMK A01 T10041020  RH  089%=      5-min Rain = 0
KEA1 080639Z 04009KT M00/M02 A3028 RMK A01 T10041020  RH  089%=      5-min Rain = 0
KEA1 080640Z 04009KT M01/M02 A3028 RMK A01 T10051020  RH  090%=      5-min Rain = 0
KEA1 080641Z 03008KT M01/M02 A3028 RMK A01 T10051019  RH  090%=      5-min Rain = 0
KEA1 080642Z 03008KT M01/M02 A3028 RMK A01 T10051018  RH  091%=      5-min Rain = 0
KEA1 080643Z 03007KT M01/M02 A3028 RMK A01 T10051018  RH  091%=      5-min Rain = 0
KEA1 080644Z 03007KT M01/M02 A3028 RMK A01 T10051018  RH  091%=      5-min Rain = 0
KEA1 080645Z 03007KT M01/M02 A3028 RMK A01 T10051017  RH  092%=      5-min Rain = 0
KEA1 080646Z 03008KT M01/M02 A3028 RMK A01 T10051017  RH  092%=      5-min Rain = 0
KEA1 080647Z 03009KT M01/M02 A3028 RMK A01 T10061017  RH  092%=      5-min Rain = 0
KEA1 080648Z 03008KT M01/M02 A3028 RMK A01 T10061016  RH  093%=      5-min Rain = 0
KEA1 080649Z 03006KT M01/M02 A3028 RMK A01 T10061016  RH  093%=      5-min Rain = 0
KEA1 080650Z 03007KT M01/M02 A3028 RMK A01 T10061016  RH  093%=      5-min Rain = 0
KEA1 080651Z 02009KT M01/M02 A3028 RMK A01 T10061016  RH  093%=      5-min Rain = 0
KEA1 080652Z 02011KT M01/M02 A3027 RMK A01 T10071017  RH  093%=      5-min Rain = 0
KEA1 080653Z 03010KT M01/M02 A3027 RMK A01 T10071017  RH  093%=      5-min Rain = 0
KEA1 080654Z 03009KT M01/M02 A3028 RMK A01 T10081018  RH  093%=      5-min Rain = 0
KEA1 080655Z 03009KT M01/M02 A3028 RMK A01 T10081017  RH  093%=      5-min Rain = 0
KEA1 080656Z 03008KT M01/M02 A3028 RMK A01 T10081017  RH  093%=      5-min Rain = 0
KEA1 080657Z 03008KT M01/M02 A3028 RMK A01 T10081017  RH  093%=      5-min Rain = 0
KEA1 080658Z 04008KT M01/M02 A3028 RMK A01 T10081017  RH  093%=      5-min Rain = 0
KEA1 080659Z 04008KT M01/M02 A3028 RMK A01 T10081017  RH  093%=      5-min Rain = 0
KEA1 080700Z 04009KT M01/M02 A3028 RMK A01 T10081018  RH  093%=      5-min Rain = 0
KEA1 080701Z 04009KT M01/M02 A3028 RMK A01 T10081019  RH  093%=      5-min Rain = 0
KEA1 080702Z 04009KT M01/M02 A3028 RMK A01 T10081019  RH  093%=      5-min Rain = 0
KEA1 080703Z 04010KT M01/M02 A3028 RMK A01 T10081019  RH  092%=      5-min Rain = 0
KEA1 080704Z 04008KT M01/M02 A3028 RMK A01 T10081020  RH  092%=      5-min Rain = 0
KEA1 080705Z 05008KT M01/M02 A3028 RMK A01 T10081020  RH  092%=      5-min Rain = 0
KEA1 080706Z 05008KT M01/M02 A3028 RMK A01 T10091020  RH  092%=      5-min Rain = 0
KEA1 080707Z 05008KT M01/M02 A3028 RMK A01 T10091020  RH  092%=      5-min Rain = 0
KEA1 080708Z 04008KT M01/M02 A3028 RMK A01 T10081019  RH  093%=      5-min Rain = 0
KEA1 080709Z 05007KT M01/M02 A3028 RMK A01 T10091019  RH  093%=      5-min Rain = 0
KEA1 080710Z 04006KT M01/M02 A3028 RMK A01 T10091019  RH  093%=      5-min Rain = 0
KEA1 080711Z 04007KT M01/M02 A3028 RMK A01 T10091018  RH  093%=      5-min Rain = 0
KEA1 080712Z 05006KT M01/M02 A3028 RMK A01 T10091018  RH  093%=      5-min Rain = 0
KEA1 080713Z 05006KT M01/M02 A3028 RMK A01 T10091018  RH  093%=      5-min Rain = 0
KEA1 080714Z 05006KT M01/M02 A3028 RMK A01 T10091018  RH  093%=      5-min Rain = 0
KEA1 080715Z 05006KT M01/M02 A3028 RMK A01 T10091018  RH  093%=      5-min Rain = 0
KEA1 080716Z 05006KT M01/M02 A3028 RMK A01 T10091018  RH  094%=      5-min Rain = 0
KEA1 080717Z 05005KT M01/M02 A3028 RMK A01 T10091018  RH  094%=      5-min Rain = 0
KEA1 080718Z 06005KT M01/M02 A3028 RMK A01 T10091017  RH  094%=      5-min Rain = 0
KEA1 080719Z 05005KT M01/M02 A3028 RMK A01 T10091017  RH  094%=      5-min Rain = 0
KEA1 080720Z 05006KT M01/M02 A3028 RMK A01 T10091018  RH  094%=      5-min Rain = 0
KEA1 080721Z 05007KT M01/M02 A3028 RMK A01 T10091018  RH  094%=      5-min Rain = 0
KEA1 080722Z 05007KT M01/M02 A3028 RMK A01 T10091018  RH  094%=      5-min Rain = 0
KEA1 080723Z 05006KT M01/M02 A3028 RMK A01 T10091018  RH  094%=      5-min Rain = 0
KEA1 080724Z 05006KT M01/M02 A3028 RMK A01 T10091018  RH  094%=      5-min Rain = 0
KEA1 080725Z 04005KT M01/M02 A3028 RMK A01 T10091018  RH  094%=      5-min Rain = 0
KEA1 080726Z 05005KT M01/M02 A3028 RMK A01 T10091018  RH  094%=      5-min Rain = 0
KEA1 080727Z 05005KT M01/M02 A3028 RMK A01 T10091018  RH  094%=      5-min Rain = 0
KEA1 080728Z 05004KT M01/M02 A3028 RMK A01 T10091017  RH  094%=      5-min Rain = 0
KEA1 080729Z 06004KT M01/M02 A3028 RMK A01 T10091017  RH  094%=      5-min Rain = 0
KEA1 080730Z 06005KT M01/M02 A3028 RMK A01 T10091017  RH  094%=      5-min Rain = 0
KEA1 080731Z 06005KT M01/M02 A3028 RMK A01 T10091017  RH  094%=      5-min Rain = 0
KEA1 080732Z 05005KT M01/M02 A3028 RMK A01 T10101018  RH  094%=      5-min Rain = 0
KEA1 080733Z 05005KT M01/M02 A3028 RMK A01 T10101017  RH  095%=      5-min Rain = 0
KEA1 080734Z 05005KT M01/M02 A3028 RMK A01 T10101017  RH  095%=      5-min Rain = 0
KEA1 080735Z 05004KT M01/M02 A3028 RMK A01 T10101017  RH  095%=      5-min Rain = 0
KEA1 080736Z 06004KT M01/M02 A3028 RMK A01 T10091017  RH  095%=      5-min Rain = 0
KEA1 080737Z 05004KT M01/M02 A3028 RMK A01 T10101017  RH  095%=      5-min Rain = 0
KEA1 080738Z 05005KT M01/M02 A3028 RMK A01 T10101017  RH  095%=      5-min Rain = 0
KEA1 080739Z 05005KT M01/M02 A3028 RMK A01 T10101016  RH  095%=      5-min Rain = 0
KEA1 080740Z 05005KT M01/M02 A3028 RMK A01 T10101016  RH  095%=      5-min Rain = 0
KEA1 080741Z 05005KT M01/M02 A3028 RMK A01 T10101016  RH  095%=      5-min Rain = 0
KEA1 080742Z 05005KT M01/M02 A3028 RMK A01 T10101016  RH  095%=      5-min Rain = 0
KEA1 080743Z 04004KT M01/M02 A3028 RMK A01 T10101017  RH  095%=      5-min Rain = 0
KEA1 080744Z 04004KT M01/M02 A3028 RMK A01 T10101017  RH  095%=      5-min Rain = 0
KEA1 080745Z 03004KT M01/M02 A3028 RMK A01 T10101017  RH  095%=      5-min Rain = 0
KEA1 080746Z 04004KT M01/M02 A3028 RMK A01 T10101016  RH  095%=      5-min Rain = 0
KEA1 080747Z 03004KT M01/M02 A3028 RMK A01 T10101016  RH  096%=      5-min Rain = 0
KEA1 080748Z 03005KT M01/M02 A3028 RMK A01 T10101016  RH  096%=      5-min Rain = 0
KEA1 080749Z 04006KT M01/M02 A3028 RMK A01 T10101017  RH  096%=      5-min Rain = 0
KEA1 080750Z 04005KT M01/M02 A3028 RMK A01 T10101016  RH  096%=      5-min Rain = 0
KEA1 080751Z 04005KT M01/M02 A3028 RMK A01 T10101016  RH  096%=      5-min Rain = 0
KEA1 080752Z 03006KT M01/M02 A3028 RMK A01 T10101016  RH  096%=      5-min Rain = 0
KEA1 080753Z 03008KT M01/M02 A3028 RMK A01 T10101016  RH  096%=      5-min Rain = 0
KEA1 080754Z 04006KT M01/M02 A3028 RMK A01 T10101016  RH  096%=      5-min Rain = 0
KEA1 080755Z 04006KT M01/M02 A3028 RMK A01 T10101016  RH  096%=      5-min Rain = 0
KEA1 080756Z 04006KT M01/M02 A3028 RMK A01 T10101016  RH  096%=      5-min Rain = 0
KEA1 080757Z 04007KT M01/M02 A3028 RMK A01 T10101016  RH  096%=      5-min Rain = 0
KEA1 080758Z 04008KT M01/M02 A3028 RMK A01 T10101016  RH  096%=      5-min Rain = 0
KEA1 080759Z 05007KT M01/M02 A3028 RMK A01 T10111017  RH  096%=      5-min Rain = 0
KEA1 080800Z 04007KT M01/M02 A3028 RMK A01 T10111017  RH  096%=      5-min Rain = 0
KEA1 080801Z 04008KT M01/M02 A3028 RMK A01 T10111017  RH  096%=      5-min Rain = 0
KEA1 080802Z 04007KT M01/M02 A3028 RMK A01 T10111017  RH  096%=      5-min Rain = 0
KEA1 080803Z 04007KT M01/M02 A3028 RMK A01 T10111017  RH  096%=      5-min Rain = 0
KEA1 080804Z 04008KT M01/M02 A3028 RMK A01 T10111018  RH  096%=      5-min Rain = 0
KEA1 080805Z 04007KT M01/M02 A3028 RMK A01 T10121018  RH  096%=      5-min Rain = 0
KEA1 080806Z 04008KT M01/M02 A3028 RMK A01 T10111017  RH  096%=      5-min Rain = 0
KEA1 080807Z 04008KT M01/M02 A3028 RMK A01 T10121018  RH  096%=      5-min Rain = 0
KEA1 080808Z 04007KT M01/M02 A3028 RMK A01 T10121018  RH  096%=      5-min Rain = 0
KEA1 080809Z 04007KT M01/M02 A3028 RMK A01 T10121018  RH  096%=      5-min Rain = 0
KEA1 080810Z 04007KT M01/M02 A3028 RMK A01 T10121018  RH  096%=      5-min Rain = 0
KEA1 080811Z 04006KT M01/M02 A3028 RMK A01 T10121018  RH  096%=      5-min Rain = 0
KEA1 080812Z 03007KT M01/M02 A3028 RMK A01 T10121018  RH  096%=      5-min Rain = 0
KEA1 080813Z 03007KT M01/M02 A3028 RMK A01 T10121018  RH  096%=      5-min Rain = 0
KEA1 080814Z 03006KT M01/M02 A3027 RMK A01 T10121018  RH  096%=      5-min Rain = 0
KEA1 080815Z 03007KT M01/M02 A3027 RMK A01 T10121018  RH  096%=      5-min Rain = 0
KEA1 080816Z 03006KT M01/M02 A3027 RMK A01 T10121018  RH  096%=      5-min Rain = 0
KEA1 080817Z 03006KT M01/M02 A3027 RMK A01 T10121018  RH  096%=      5-min Rain = 0
KEA1 080818Z 03006KT M01/M02 A3027 RMK A01 T10121017  RH  096%=      5-min Rain = 0
KEA1 080819Z 03006KT M01/M02 A3027 RMK A01 T10121017  RH  096%=      5-min Rain = 0
KEA1 080820Z 03006KT M01/M02 A3027 RMK A01 T10121017  RH  096%=      5-min Rain = 0
KEA1 080821Z 03006KT M01/M02 A3027 RMK A01 T10121017  RH  096%=      5-min Rain = 0
KEA1 080822Z 03006KT M01/M02 A3027 RMK A01 T10121017  RH  096%=      5-min Rain = 0
KEA1 080823Z 04005KT M01/M02 A3028 RMK A01 T10121018  RH  096%=      5-min Rain = 0
KEA1 080824Z 03006KT M01/M02 A3028 RMK A01 T10121017  RH  096%=      5-min Rain = 0
KEA1 080825Z 03007KT M01/M02 A3027 RMK A01 T10121017  RH  096%=      5-min Rain = 0
KEA1 080826Z 03006KT M01/M02 A3027 RMK A01 T10121017  RH  096%=      5-min Rain = 0
KEA1 080827Z 03007KT M01/M02 A3027 RMK A01 T10121017  RH  096%=      5-min Rain = 0
KEA1 080828Z 03006KT M01/M02 A3027 RMK A01 T10121017  RH  096%=      5-min Rain = 0
KEA1 080829Z 03006KT M01/M02 A3027 RMK A01 T10121017  RH  096%=      5-min Rain = 0
KEA1 080830Z 03007KT M01/M02 A3027 RMK A01 T10121017  RH  096%=      5-min Rain = 0
KEA1 080831Z 03005KT M01/M02 A3027 RMK A01 T10121017  RH  096%=      5-min Rain = 0
KEA1 080832Z 03006KT M01/M02 A3027 RMK A01 T10121017  RH  096%=      5-min Rain = 0
KEA1 080833Z 03007KT M01/M02 A3027 RMK A01 T10121017  RH  096%=      5-min Rain = 0
KEA1 080834Z 03006KT M01/M02 A3027 RMK A01 T10121017  RH  096%=      5-min Rain = 0
KEA1 080835Z 03006KT M01/M02 A3027 RMK A01 T10121017  RH  096%=      5-min Rain = 0
KEA1 080836Z 03005KT M01/M02 A3027 RMK A01 T10121017  RH  096%=      5-min Rain = 0
KEA1 080837Z 03006KT M01/M02 A3027 RMK A01 T10121017  RH  096%=      5-min Rain = 0
KEA1 080838Z 02006KT M01/M02 A3027 RMK A01 T10121017  RH  096%=      5-min Rain = 0
KEA1 080839Z 03006KT M01/M02 A3027 RMK A01 T10131017  RH  097%=      5-min Rain = 0
KEA1 080840Z 02005KT M01/M02 A3027 RMK A01 T10131017  RH  097%=      5-min Rain = 0
KEA1 080841Z 02005KT M01/M02 A3027 RMK A01 T10121017  RH  097%=      5-min Rain = 0
KEA1 080842Z 02005KT M01/M02 A3027 RMK A01 T10121017  RH  097%=      5-min Rain = 0
KEA1 080843Z 02005KT M01/M02 A3027 RMK A01 T10121017  RH  097%=      5-min Rain = 0
KEA1 080844Z 02005KT M01/M02 A3027 RMK A01 T10121017  RH  097%=      5-min Rain = 0
KEA1 080845Z 02005KT M01/M02 A3027 RMK A01 T10131017  RH  097%=      5-min Rain = 0
KEA1 080846Z 02005KT M01/M02 A3027 RMK A01 T10121017  RH  097%=      5-min Rain = 0
KEA1 080847Z 02005KT M01/M02 A3027 RMK A01 T10131017  RH  097%=      5-min Rain = 0
KEA1 080848Z 02005KT M01/M02 A3027 RMK A01 T10131017  RH  097%=      5-min Rain = 0
KEA1 080849Z 02005KT M01/M02 A3027 RMK A01 T10121017  RH  097%=      5-min Rain = 0
KEA1 080850Z 01004KT M01/M02 A3027 RMK A01 T10121017  RH  097%=      5-min Rain = 0
KEA1 080851Z 02005KT M01/M02 A3027 RMK A01 T10121017  RH  097%=      5-min Rain = 0
KEA1 080852Z 01005KT M01/M02 A3027 RMK A01 T10121017  RH  097%=      5-min Rain = 0
KEA1 080853Z 01005KT M01/M02 A3027 RMK A01 T10121017  RH  097%=      5-min Rain = 0
KEA1 080854Z 01005KT M01/M02 A3027 RMK A01 T10121016  RH  097%=      5-min Rain = 0
KEA1 080855Z 01005KT M01/M02 A3027 RMK A01 T10121016  RH  097%=      5-min Rain = 0
KEA1 080856Z 01005KT M01/M02 A3027 RMK A01 T10121016  RH  097%=      5-min Rain = 0
KEA1 080857Z 01005KT M01/M02 A3027 RMK A01 T10121017  RH  097%=      5-min Rain = 0
KEA1 080858Z 01005KT M01/M02 A3027 RMK A01 T10121017  RH  097%=      5-min Rain = 0
KEA1 080859Z 01005KT M01/M02 A3027 RMK A01 T10121016  RH  097%=      5-min Rain = 0
KEA1 080900Z 01006KT M01/M02 A3027 RMK A01 T10121016  RH  097%=      5-min Rain = 0
KEA1 080901Z 01006KT M01/M02 A3027 RMK A01 T10121016  RH  097%=      5-min Rain = 0
KEA1 080902Z 01005KT M01/M02 A3027 RMK A01 T10121016  RH  097%=      5-min Rain = 0
KEA1 080903Z 01005KT M01/M02 A3027 RMK A01 T10121017  RH  097%=      5-min Rain = 0
KEA1 080904Z 01006KT M01/M02 A3027 RMK A01 T10121016  RH  097%=      5-min Rain = 0
KEA1 080905Z 01006KT M01/M02 A3027 RMK A01 T10121016  RH  097%=      5-min Rain = 0
KEA1 080906Z 00005KT M01/M02 A3026 RMK A01 T10121016  RH  097%=      5-min Rain = 0
KEA1 080907Z 01005KT M01/M02 A3026 RMK A01 T10121016  RH  097%=      5-min Rain = 0
KEA1 080908Z 01006KT M01/M02 A3026 RMK A01 T10121016  RH  097%=      5-min Rain = 0
KEA1 080909Z 00006KT M01/M02 A3026 RMK A01 T10121016  RH  097%=      5-min Rain = 0
KEA1 080910Z 01005KT M01/M02 A3026 RMK A01 T10121016  RH  097%=      5-min Rain = 0
KEA1 080911Z 01006KT M01/M02 A3026 RMK A01 T10121016  RH  097%=      5-min Rain = 0
KEA1 080912Z 00005KT M01/M02 A3026 RMK A01 T10121016  RH  097%=      5-min Rain = 0
KEA1 080913Z 01005KT M01/M02 A3026 RMK A01 T10111015  RH  097%=      5-min Rain = 0
KEA1 080914Z 01005KT M01/M02 A3026 RMK A01 T10111016  RH  097%=      5-min Rain = 0
KEA1 080915Z 00006KT M01/M02 A3026 RMK A01 T10121016  RH  097%=      5-min Rain = 0
KEA1 080916Z 00006KT M01/M02 A3026 RMK A01 T10121016  RH  097%=      5-min Rain = 0
KEA1 080917Z 00006KT M01/M02 A3026 RMK A01 T10121016  RH  097%=      5-min Rain = 0
KEA1 080918Z 01006KT M01/M02 A3026 RMK A01 T10121016  RH  097%=      5-min Rain = 0
KEA1 080919Z 01006KT M01/M02 A3026 RMK A01 T10121016  RH  097%=      5-min Rain = 0
KEA1 080920Z 01007KT M01/M02 A3026 RMK A01 T10121016  RH  097%=      5-min Rain = 0
KEA1 080921Z 01007KT M01/M02 A3026 RMK A01 T10111016  RH  097%=      5-min Rain = 0
KEA1 080922Z 01007KT M01/M02 A3026 RMK A01 T10121016  RH  097%=      5-min Rain = 0
KEA1 080923Z 01007KT M01/M02 A3026 RMK A01 T10111016  RH  097%=      5-min Rain = 0
KEA1 080924Z 02007KT M01/M02 A3026 RMK A01 T10111016  RH  097%=      5-min Rain = 0
KEA1 080925Z 01007KT M01/M02 A3026 RMK A01 T10111015  RH  097%=      5-min Rain = 0
KEA1 080926Z 02007KT M01/M02 A3026 RMK A01 T10121016  RH  097%=      5-min Rain = 0
KEA1 080927Z 01006KT M01/M02 A3026 RMK A01 T10111016  RH  097%=      5-min Rain = 0
KEA1 080928Z 01006KT M01/M02 A3026 RMK A01 T10111015  RH  097%=      5-min Rain = 0
KEA1 080929Z 01007KT M01/M02 A3026 RMK A01 T10121016  RH  097%=      5-min Rain = 0
KEA1 080930Z 01007KT M01/M02 A3026 RMK A01 T10111016  RH  097%=      5-min Rain = 0
KEA1 080931Z 01006KT M01/M02 A3026 RMK A01 T10111015  RH  097%=      5-min Rain = 0
KEA1 080932Z 01006KT M01/M02 A3026 RMK A01 T10111015  RH  097%=      5-min Rain = 0
KEA1 080933Z 01006KT M01/M02 A3026 RMK A01 T10121016  RH  097%=      5-min Rain = 0
KEA1 080934Z 01005KT M01/M02 A3026 RMK A01 T10121016  RH  097%=      5-min Rain = 0
KEA1 080935Z 01006KT M01/M02 A3026 RMK A01 T10121016  RH  097%=      5-min Rain = 0
KEA1 080936Z 00005KT M01/M02 A3026 RMK A01 T10121016  RH  097%=      5-min Rain = 0
KEA1 080937Z 01005KT M01/M02 A3026 RMK A01 T10121016  RH  097%=      5-min Rain = 0
KEA1 080938Z 01005KT M01/M02 A3026 RMK A01 T10111015  RH  097%=      5-min Rain = 0
KEA1 080939Z 00005KT M01/M02 A3026 RMK A01 T10121015  RH  097%=      5-min Rain = 0
KEA1 080940Z 01005KT M01/M02 A3026 RMK A01 T10111015  RH  097%=      5-min Rain = 0
KEA1 080941Z 01005KT M01/M02 A3026 RMK A01 T10121015  RH  097%=      5-min Rain = 0
KEA1 080942Z 01005KT M01/M02 A3026 RMK A01 T10111015  RH  097%=      5-min Rain = 0
KEA1 080943Z 01006KT M01/M02 A3026 RMK A01 T10111015  RH  097%=      5-min Rain = 0
KEA1 080944Z 01005KT M01/M02 A3026 RMK A01 T10111015  RH  097%=      5-min Rain = 0
KEA1 080945Z 01006KT M01/M02 A3026 RMK A01 T10111015  RH  097%=      5-min Rain = 0
KEA1 080946Z 01005KT M01/M02 A3026 RMK A01 T10111015  RH  097%=      5-min Rain = 0
KEA1 080947Z 01006KT M01/M02 A3026 RMK A01 T10111015  RH  097%=      5-min Rain = 0
KEA1 080948Z 01005KT M01/M02 A3026 RMK A01 T10111015  RH  097%=      5-min Rain = 0
KEA1 080949Z 00005KT M01/M02 A3026 RMK A01 T10111015  RH  097%=      5-min Rain = 0
KEA1 080950Z 00005KT M01/M02 A3026 RMK A01 T10111015  RH  097%=      5-min Rain = 0
KEA1 080951Z 00005KT M01/M02 A3026 RMK A01 T10111015  RH  097%=      5-min Rain = 0
KEA1 080952Z 00005KT M01/M02 A3026 RMK A01 T10111015  RH  097%=      5-min Rain = 0
KEA1 080953Z 00005KT M01/M02 A3026 RMK A01 T10111015  RH  097%=      5-min Rain = 0
KEA1 080954Z 00004KT M01/M02 A3026 RMK A01 T10111015  RH  097%=      5-min Rain = 0
KEA1 080955Z 00004KT M01/M02 A3026 RMK A01 T10111015  RH  097%=      5-min Rain = 0
KEA1 080956Z 00004KT M01/M02 A3026 RMK A01 T10111015  RH  097%=      5-min Rain = 0
KEA1 080957Z 36004KT M01/M02 A3026 RMK A01 T10111015  RH  097%=      5-min Rain = 0
KEA1 080958Z 00004KT M01/M02 A3026 RMK A01 T10111015  RH  097%=      5-min Rain = 0
KEA1 080959Z 00004KT M01/M02 A3026 RMK A01 T10111015  RH  097%=      5-min Rain = 0
KEA1 081000Z 36004KT M01/M01 A3026 RMK A01 T10111014  RH  097%=      5-min Rain = 0
KEA1 081001Z 00005KT M01/M01 A3026 RMK A01 T10101014  RH  097%=      5-min Rain = 0
KEA1 081002Z 36005KT M01/M01 A3026 RMK A01 T10111014  RH  097%=      5-min Rain = 0
KEA1 081003Z 36005KT M01/M01 A3026 RMK A01 T10111014  RH  097%=      5-min Rain = 0
KEA1 081004Z 36005KT M01/M01 A3026 RMK A01 T10101014  RH  097%=      5-min Rain = 0
KEA1 081005Z 36005KT M01/M01 A3026 RMK A01 T10111014  RH  097%=      5-min Rain = 0
KEA1 081006Z 00006KT M01/M01 A3026 RMK A01 T10111014  RH  097%=      5-min Rain = 0
KEA1 081007Z 00005KT M01/M01 A3026 RMK A01 T10111014  RH  097%=      5-min Rain = 0
KEA1 081008Z 36005KT M01/M01 A3026 RMK A01 T10101014  RH  097%=      5-min Rain = 0
KEA1 081009Z 36006KT M01/M01 A3025 RMK A01 T10101014  RH  097%=      5-min Rain = 0
KEA1 081010Z 36006KT M01/M01 A3025 RMK A01 T10101014  RH  097%=      5-min Rain = 0
KEA1 081011Z 00006KT M01/M01 A3025 RMK A01 T10101014  RH  097%=      5-min Rain = 0
KEA1 081012Z 36005KT M01/M01 A3025 RMK A01 T10101014  RH  097%=      5-min Rain = 0
KEA1 081013Z 36005KT M01/M01 A3025 RMK A01 T10101014  RH  097%=      5-min Rain = 0
KEA1 081014Z 36005KT M01/M01 A3025 RMK A01 T10101014  RH  097%=      5-min Rain = 0
KEA1 081015Z 36006KT M01/M01 A3025 RMK A01 T10101014  RH  097%=      5-min Rain = 0
KEA1 081016Z 36005KT M01/M01 A3025 RMK A01 T10101014  RH  097%=      5-min Rain = 0
KEA1 081017Z 35006KT M01/M01 A3025 RMK A01 T10101014  RH  097%=      5-min Rain = 0
KEA1 081018Z 36005KT M01/M01 A3025 RMK A01 T10101013  RH  097%=      5-min Rain = 0
KEA1 081019Z 36005KT M01/M01 A3025 RMK A01 T10101014  RH  097%=      5-min Rain = 0
KEA1 081020Z 35005KT M01/M01 A3025 RMK A01 T10101014  RH  097%=      5-min Rain = 0
KEA1 081021Z 35005KT M01/M01 A3025 RMK A01 T10101014  RH  097%=      5-min Rain = 0
KEA1 081022Z 35005KT M01/M01 A3025 RMK A01 T10101014  RH  097%=      5-min Rain = 0
KEA1 081023Z 35006KT M01/M01 A3025 RMK A01 T10101014  RH  097%=      5-min Rain = 0
KEA1 081024Z 36006KT M01/M01 A3025 RMK A01 T10101014  RH  097%=      5-min Rain = 0
KEA1 081025Z 35007KT M01/M01 A3025 RMK A01 T10101013  RH  097%=      5-min Rain = 0
KEA1 081026Z 35008KT M01/M01 A3025 RMK A01 T10101013  RH  098%=      5-min Rain = 0
KEA1 081027Z 36008KT M01/M01 A3025 RMK A01 T10091013  RH  098%=      5-min Rain = 0
KEA1 081028Z 35008KT M01/M01 A3025 RMK A01 T10101013  RH  097%=      5-min Rain = 0
KEA1 081029Z 35008KT M01/M01 A3025 RMK A01 T10101013  RH  097%=      5-min Rain = 0
KEA1 081030Z 36007KT M01/M01 A3025 RMK A01 T10101013  RH  097%=      5-min Rain = 0
KEA1 081031Z 36007KT M01/M01 A3025 RMK A01 T10101013  RH  097%=      5-min Rain = 0
KEA1 081032Z 00007KT M01/M01 A3025 RMK A01 T10101013  RH  097%=      5-min Rain = 0
KEA1 081033Z 36007KT M01/M01 A3025 RMK A01 T10101013  RH  098%=      5-min Rain = 0
KEA1 081034Z 35008KT M01/M01 A3025 RMK A01 T10101013  RH  097%=      5-min Rain = 0
KEA1 081035Z 35007KT M01/M01 A3025 RMK A01 T10101013  RH  097%=      5-min Rain = 0
KEA1 081036Z 35008KT M01/M01 A3025 RMK A01 T10101013  RH  097%=      5-min Rain = 0
KEA1 081037Z 35007KT M01/M01 A3025 RMK A01 T10101014  RH  097%=      5-min Rain = 0
KEA1 081038Z 35008KT M01/M01 A3025 RMK A01 T10101014  RH  097%=      5-min Rain = 0
KEA1 081039Z 35009KT M01/M01 A3025 RMK A01 T10101014  RH  097%=      5-min Rain = 0
KEA1 081040Z 35011KT M01/M01 A3025 RMK A01 T10101014  RH  097%=      5-min Rain = 0
KEA1 081041Z 36010KT M01/M01 A3025 RMK A01 T10101014  RH  097%=      5-min Rain = 0
KEA1 081042Z 36012KT M01/M02 A3025 RMK A01 T10111015  RH  097%=      5-min Rain = 0
KEA1 081043Z 35012KT M01/M02 A3025 RMK A01 T10111015  RH  097%=      5-min Rain = 0
KEA1 081044Z 36010KT M01/M02 A3025 RMK A01 T10121015  RH  097%=      5-min Rain = 0
KEA1 081045Z 35010KT M01/M02 A3025 RMK A01 T10121016  RH  097%=      5-min Rain = 0
KEA1 081046Z 35010KT M01/M02 A3025 RMK A01 T10121016  RH  097%=      5-min Rain = 0
KEA1 081047Z 36010KT M01/M02 A3025 RMK A01 T10121016  RH  097%=      5-min Rain = 0
KEA1 081048Z 36010KT M01/M02 A3025 RMK A01 T10121016  RH  097%=      5-min Rain = 0
KEA1 081049Z 36010KT M01/M02 A3025 RMK A01 T10121016  RH  097%=      5-min Rain = 0
KEA1 081050Z 36009KT M01/M02 A3025 RMK A01 T10121016  RH  097%=      5-min Rain = 0
KEA1 081051Z 00008KT M01/M02 A3025 RMK A01 T10121016  RH  097%=      5-min Rain = 0
KEA1 081052Z 00009KT M01/M02 A3025 RMK A01 T10121016  RH  097%=      5-min Rain = 0
KEA1 081053Z 36010KT M01/M02 A3025 RMK A01 T10131017  RH  097%=      5-min Rain = 0
KEA1 081054Z 00009KT M01/M02 A3025 RMK A01 T10131016  RH  097%=      5-min Rain = 0
KEA1 081055Z 00008KT M01/M02 A3025 RMK A01 T10131017  RH  097%=      5-min Rain = 0
KEA1 081056Z 00009KT M01/M02 A3025 RMK A01 T10131017  RH  097%=      5-min Rain = 0
KEA1 081057Z 00008KT M01/M02 A3025 RMK A01 T10131017  RH  097%=      5-min Rain = 0
KEA1 081058Z 00009KT M01/M02 A3025 RMK A01 T10131017  RH  097%=      5-min Rain = 0
KEA1 081059Z 00009KT M01/M02 A3025 RMK A01 T10131017  RH  097%=      5-min Rain = 0
KEA1 081100Z 00009KT M01/M02 A3024 RMK A01 T10131016  RH  097%=      5-min Rain = 0
KEA1 081101Z 00008KT M01/M02 A3024 RMK A01 T10131017  RH  097%=      5-min Rain = 0
KEA1 081102Z 00008KT M01/M02 A3024 RMK A01 T10131017  RH  097%=      5-min Rain = 0
KEA1 081103Z 00009KT M01/M02 A3024 RMK A01 T10131016  RH  097%=      5-min Rain = 0
KEA1 081104Z 36009KT M01/M02 A3024 RMK A01 T10131017  RH  097%=      5-min Rain = 0
KEA1 081105Z 35009KT M01/M02 A3024 RMK A01 T10131016  RH  097%=      5-min Rain = 0
KEA1 081106Z 36010KT M01/M02 A3024 RMK A01 T10131016  RH  097%=      5-min Rain = 0
KEA1 081107Z 00011KT M01/M02 A3024 RMK A01 T10131017  RH  097%=      5-min Rain = 0
KEA1 081108Z 00011KT M01/M02 A3024 RMK A01 T10131017  RH  097%=      5-min Rain = 0
KEA1 081109Z 36011KT M01/M02 A3024 RMK A01 T10131017  RH  097%=      5-min Rain = 0
KEA1 081110Z 00009KT M01/M02 A3024 RMK A01 T10131017  RH  097%=      5-min Rain = 0
KEA1 081111Z 00010KT M01/M02 A3024 RMK A01 T10131017  RH  097%=      5-min Rain = 0
KEA1 081112Z 00010KT M01/M02 A3024 RMK A01 T10131017  RH  097%=      5-min Rain = 0
KEA1 081113Z 00009KT M01/M02 A3024 RMK A01 T10141017  RH  097%=      5-min Rain = 0
KEA1 081114Z 00010KT M01/M02 A3024 RMK A01 T10131017  RH  097%=      5-min Rain = 0
KEA1 081115Z 00011KT M01/M02 A3024 RMK A01 T10131017  RH  097%=      5-min Rain = 0
KEA1 081116Z 00009KT M01/M02 A3024 RMK A01 T10131017  RH  097%=      5-min Rain = 0
KEA1 081117Z 00011KT M01/M02 A3024 RMK A01 T10141017  RH  097%=      5-min Rain = 0
KEA1 081118Z 00009KT M01/M02 A3024 RMK A01 T10141018  RH  097%=      5-min Rain = 0
KEA1 081119Z 01012KT M01/M02 A3024 RMK A01 T10141018  RH  097%=      5-min Rain = 0
KEA1 081120Z 00012KT M01/M02 A3024 RMK A01 T10141018  RH  097%=      5-min Rain = 0
KEA1 081121Z 01010KT M01/M02 A3024 RMK A01 T10141018  RH  097%=      5-min Rain = 0
KEA1 081122Z 00011KT M01/M02 A3024 RMK A01 T10141018  RH  097%=      5-min Rain = 0
KEA1 081123Z 01009KT M01/M02 A3024 RMK A01 T10141018  RH  097%=      5-min Rain = 0
KEA1 081124Z 01009KT M01/M02 A3024 RMK A01 T10141018  RH  097%=      5-min Rain = 0
KEA1 081125Z 01008KT M01/M02 A3024 RMK A01 T10141018  RH  097%=      5-min Rain = 0
KEA1 081126Z 01009KT M01/M02 A3024 RMK A01 T10141018  RH  097%=      5-min Rain = 0
KEA1 081127Z 00009KT M01/M02 A3024 RMK A01 T10141018  RH  097%=      5-min Rain = 0
KEA1 081128Z 01010KT M01/M02 A3024 RMK A01 T10141018  RH  097%=      5-min Rain = 0
KEA1 081129Z 00009KT M01/M02 A3024 RMK A01 T10141018  RH  097%=      5-min Rain = 0
KEA1 081130Z 00010KT M01/M02 A3024 RMK A01 T10141018  RH  097%=      5-min Rain = 0
KEA1 081131Z 01009KT M01/M02 A3024 RMK A01 T10141018  RH  097%=      5-min Rain = 0
KEA1 081132Z 01009KT M02/M02 A3024 RMK A01 T10151019  RH  097%=      5-min Rain = 0
KEA1 081133Z 01011KT M01/M02 A3024 RMK A01 T10141018  RH  097%=      5-min Rain = 0
KEA1 081134Z 01010KT M01/M02 A3024 RMK A01 T10141018  RH  097%=      5-min Rain = 0
KEA1 081135Z 01009KT M01/M02 A3024 RMK A01 T10141018  RH  097%=      5-min Rain = 0
KEA1 081136Z 01008KT M01/M02 A3024 RMK A01 T10141018  RH  097%=      5-min Rain = 0
KEA1 081137Z 01009KT M01/M02 A3024 RMK A01 T10141018  RH  097%=      5-min Rain = 0
KEA1 081138Z 00009KT M01/M02 A3024 RMK A01 T10141018  RH  097%=      5-min Rain = 0
KEA1 081139Z 01008KT M02/M02 A3024 RMK A01 T10151019  RH  097%=      5-min Rain = 0
KEA1 081140Z 01008KT M01/M02 A3025 RMK A01 T10141018  RH  097%=      5-min Rain = 0
KEA1 081141Z 00008KT M01/M02 A3025 RMK A01 T10141018  RH  097%=      5-min Rain = 0
KEA1 081142Z 00008KT M01/M02 A3025 RMK A01 T10141018  RH  097%=      5-min Rain = 0
KEA1 081143Z 00008KT M01/M02 A3025 RMK A01 T10141018  RH  097%=      5-min Rain = 0
KEA1 081144Z 01008KT M01/M02 A3025 RMK A01 T10141018  RH  097%=      5-min Rain = 0
KEA1 081145Z 00008KT M01/M02 A3025 RMK A01 T10141018  RH  097%=      5-min Rain = 0
KEA1 081146Z 00008KT M01/M02 A3025 RMK A01 T10141017  RH  097%=      5-min Rain = 0
KEA1 081147Z 00009KT M01/M02 A3025 RMK A01 T10141018  RH  097%=      5-min Rain = 0
KEA1 081148Z 00009KT M01/M02 A3025 RMK A01 T10141018  RH  097%=      5-min Rain = 0
KEA1 081149Z 00008KT M01/M02 A3025 RMK A01 T10141018  RH  097%=      5-min Rain = 0
KEA1 081150Z 00007KT M01/M02 A3025 RMK A01 T10141017  RH  097%=      5-min Rain = 0
KEA1 081151Z 00007KT M01/M02 A3025 RMK A01 T10141018  RH  097%=      5-min Rain = 0
KEA1 081152Z 00009KT M01/M02 A3025 RMK A01 T10141018  RH  097%=      5-min Rain = 0
KEA1 081153Z 00008KT M01/M02 A3025 RMK A01 T10141018  RH  097%=      5-min Rain = 0
KEA1 081154Z 01006KT M01/M02 A3025 RMK A01 T10141018  RH  097%=      5-min Rain = 0
KEA1 081155Z 01008KT M01/M02 A3025 RMK A01 T10141018  RH  097%=      5-min Rain = 0
KEA1 081156Z 36009KT M01/M02 A3025 RMK A01 T10141018  RH  097%=      5-min Rain = 0
KEA1 081157Z 00008KT M01/M02 A3025 RMK A01 T10141018  RH  097%=      5-min Rain = 0
KEA1 081158Z 01008KT M01/M02 A3025 RMK A01 T10141018  RH  097%=      5-min Rain = 0
KEA1 081159Z 00010KT M01/M02 A3025 RMK A01 T10141018  RH  097%=      5-min Rain = 0
KEA1 081200Z 01009KT M01/M02 A3025 RMK A01 T10141018  RH  097%=      5-min Rain = 0
KEA1 081201Z 00009KT M01/M02 A3025 RMK A01 T10141018  RH  097%=      5-min Rain = 0
KEA1 081202Z 01008KT M01/M02 A3025 RMK A01 T10141018  RH  097%=      5-min Rain = 0
KEA1 081203Z 00009KT M01/M02 A3025 RMK A01 T10141018  RH  097%=      5-min Rain = 0
KEA1 081204Z 00010KT M01/M02 A3025 RMK A01 T10141018  RH  097%=      5-min Rain = 0
KEA1 081205Z 00009KT M01/M02 A3025 RMK A01 T10141018  RH  097%=      5-min Rain = 0
KEA1 081206Z 01008KT M01/M02 A3025 RMK A01 T10141018  RH  097%=      5-min Rain = 0
KEA1 081207Z 00008KT M01/M02 A3025 RMK A01 T10141018  RH  097%=      5-min Rain = 0
KEA1 081208Z 00009KT M02/M02 A3025 RMK A01 T10151019  RH  097%=      5-min Rain = 0
KEA1 081209Z 01009KT M02/M02 A3025 RMK A01 T10151019  RH  097%=      5-min Rain = 0
KEA1 081210Z 00009KT M02/M02 A3025 RMK A01 T10151019  RH  097%=      5-min Rain = 0
KEA1 081211Z 00009KT M02/M02 A3025 RMK A01 T10151019  RH  097%=      5-min Rain = 0
KEA1 081212Z 01008KT M02/M02 A3025 RMK A01 T10151019  RH  097%=      5-min Rain = 0
KEA1 081213Z 01008KT M02/M02 A3025 RMK A01 T10151019  RH  097%=      5-min Rain = 0
KEA1 081214Z 01009KT M01/M02 A3025 RMK A01 T10141019  RH  097%=      5-min Rain = 0
KEA1 081215Z 00007KT M02/M02 A3025 RMK A01 T10151019  RH  097%=      5-min Rain = 0
KEA1 081216Z 01007KT M01/M02 A3025 RMK A01 T10141018  RH  097%=      5-min Rain = 0
KEA1 081217Z 01008KT M02/M02 A3025 RMK A01 T10151019  RH  097%=      5-min Rain = 0
KEA1 081218Z 01007KT M02/M02 A3025 RMK A01 T10151019  RH  097%=      5-min Rain = 0
KEA1 081219Z 01008KT M02/M02 A3025 RMK A01 T10151019  RH  097%=      5-min Rain = 0
KEA1 081220Z 00007KT M02/M02 A3025 RMK A01 T10151019  RH  097%=      5-min Rain = 0
KEA1 081221Z 01007KT M01/M02 A3025 RMK A01 T10141018  RH  097%=      5-min Rain = 0
KEA1 081222Z 01007KT M02/M02 A3025 RMK A01 T10151019  RH  097%=      5-min Rain = 0
KEA1 081223Z 01007KT M02/M02 A3025 RMK A01 T10151019  RH  097%=      5-min Rain = 0
KEA1 081224Z 01006KT M02/M02 A3025 RMK A01 T10151019  RH  097%=      5-min Rain = 0
KEA1 081225Z 01007KT M02/M02 A3025 RMK A01 T10151019  RH  097%=      5-min Rain = 0
KEA1 081226Z 01007KT M02/M02 A3025 RMK A01 T10151019  RH  097%=      5-min Rain = 0
KEA1 081227Z 01006KT M02/M02 A3025 RMK A01 T10151019  RH  097%=      5-min Rain = 0
KEA1 081228Z 01007KT M02/M02 A3025 RMK A01 T10151019  RH  097%=      5-min Rain = 0
KEA1 081229Z 01007KT M02/M02 A3025 RMK A01 T10151019  RH  097%=      5-min Rain = 0
KEA1 081230Z 01008KT M02/M02 A3025 RMK A01 T10151019  RH  097%=      5-min Rain = 0
KEA1 081231Z 01007KT M02/M02 A3025 RMK A01 T10151019  RH  097%=      5-min Rain = 0
KEA1 081232Z 01007KT M02/M02 A3025 RMK A01 T10151019  RH  097%=      5-min Rain = 0
KEA1 081233Z 01007KT M02/M02 A3025 RMK A01 T10151019  RH  097%=      5-min Rain = 0
KEA1 081234Z 01007KT M02/M02 A3025 RMK A01 T10151019  RH  097%=      5-min Rain = 0
KEA1 081235Z 01008KT M02/M02 A3025 RMK A01 T10151019  RH  097%=      5-min Rain = 0
KEA1 081236Z 01007KT M02/M02 A3025 RMK A01 T10151019  RH  097%=      5-min Rain = 0
KEA1 081237Z 01008KT M02/M02 A3025 RMK A01 T10151019  RH  097%=      5-min Rain = 0
KEA1 081238Z 01007KT M02/M02 A3025 RMK A01 T10151019  RH  097%=      5-min Rain = 0
KEA1 081239Z 01006KT M02/M02 A3025 RMK A01 T10151019  RH  097%=      5-min Rain = 0
KEA1 081240Z 01007KT M02/M02 A3025 RMK A01 T10151019  RH  097%=      5-min Rain = 0
KEA1 081241Z 01007KT M02/M02 A3025 RMK A01 T10151019  RH  097%=      5-min Rain = 0
KEA1 081242Z 01006KT M01/M02 A3025 RMK A01 T10141019  RH  097%=      5-min Rain = 0
KEA1 081243Z 01006KT M02/M02 A3026 RMK A01 T10151019  RH  097%=      5-min Rain = 0
KEA1 081244Z 01006KT M02/M02 A3026 RMK A01 T10151019  RH  097%=      5-min Rain = 0
KEA1 081245Z 01007KT M02/M02 A3026 RMK A01 T10151019  RH  097%=      5-min Rain = 0
KEA1 081246Z 01006KT M02/M02 A3026 RMK A01 T10151019  RH  097%=      5-min Rain = 0
KEA1 081247Z 01007KT M02/M02 A3026 RMK A01 T10151019  RH  097%=      5-min Rain = 0
KEA1 081248Z 01006KT M01/M02 A3026 RMK A01 T10141019  RH  097%=      5-min Rain = 0
KEA1 081249Z 01007KT M02/M02 A3026 RMK A01 T10151019  RH  097%=      5-min Rain = 0
KEA1 081250Z 01006KT M01/M02 A3026 RMK A01 T10141019  RH  097%=      5-min Rain = 0
KEA1 081251Z 01006KT M02/M02 A3026 RMK A01 T10151019  RH  097%=      5-min Rain = 0
KEA1 081252Z 01006KT M02/M02 A3026 RMK A01 T10151019  RH  097%=      5-min Rain = 0
KEA1 081253Z 01006KT M02/M02 A3026 RMK A01 T10151019  RH  097%=      5-min Rain = 0
KEA1 081254Z 01006KT M02/M02 A3026 RMK A01 T10151019  RH  097%=      5-min Rain = 0
KEA1 081255Z 01005KT M02/M02 A3026 RMK A01 T10151019  RH  097%=      5-min Rain = 0
KEA1 081256Z 01005KT M02/M02 A3026 RMK A01 T10151019  RH  097%=      5-min Rain = 0
KEA1 081257Z 01005KT M02/M02 A3026 RMK A01 T10151019  RH  097%=      5-min Rain = 0
KEA1 081258Z 01005KT M02/M02 A3026 RMK A01 T10151020  RH  097%=      5-min Rain = 0
KEA1 081259Z 01005KT M02/M02 A3026 RMK A01 T10151020  RH  097%=      5-min Rain = 0
KEA1 081300Z 02004KT M02/M02 A3026 RMK A01 T10151020  RH  097%=      5-min Rain = 0
KEA1 081301Z 02004KT M02/M02 A3027 RMK A01 T10151020  RH  097%=      5-min Rain = 0
KEA1 081302Z 02004KT M02/M02 A3027 RMK A01 T10151020  RH  097%=      5-min Rain = 0
KEA1 081303Z 01005KT M02/M02 A3027 RMK A01 T10151020  RH  097%=      5-min Rain = 0
KEA1 081304Z 02004KT M02/M02 A3027 RMK A01 T10151020  RH  097%=      5-min Rain = 0
KEA1 081305Z 01004KT M02/M02 A3027 RMK A01 T10151019  RH  097%=      5-min Rain = 0
KEA1 081306Z 01004KT M02/M02 A3027 RMK A01 T10151020  RH  097%=      5-min Rain = 0
KEA1 081307Z 01004KT M02/M02 A3027 RMK A01 T10151020  RH  097%=      5-min Rain = 0
KEA1 081308Z 02003KT M02/M02 A3027 RMK A01 T10151020  RH  097%=      5-min Rain = 0
KEA1 081309Z 02003KT M02/M02 A3027 RMK A01 T10151020  RH  097%=      5-min Rain = 0
KEA1 081310Z 02003KT M02/M02 A3027 RMK A01 T10151020  RH  097%=      5-min Rain = 0
KEA1 081311Z 02003KT M02/M02 A3027 RMK A01 T10151020  RH  097%=      5-min Rain = 0
KEA1 081312Z 02003KT M02/M02 A3027 RMK A01 T10151019  RH  097%=      5-min Rain = 0
KEA1 081313Z 01003KT M02/M02 A3027 RMK A01 T10151020  RH  097%=      5-min Rain = 0
KEA1 081314Z 02003KT M02/M02 A3027 RMK A01 T10151020  RH  097%=      5-min Rain = 0
KEA1 081315Z 02003KT M02/M02 A3027 RMK A01 T10151020  RH  097%=      5-min Rain = 0
KEA1 081316Z 02002KT M02/M02 A3027 RMK A01 T10151020  RH  097%=      5-min Rain = 0
KEA1 081317Z 02002KT M02/M02 A3027 RMK A01 T10151019  RH  097%=      5-min Rain = 0
KEA1 081318Z 02003KT M02/M02 A3027 RMK A01 T10151020  RH  097%=      5-min Rain = 0
KEA1 081319Z 02002KT M02/M02 A3027 RMK A01 T10151020  RH  097%=      5-min Rain = 0
KEA1 081320Z 02002KT M02/M02 A3028 RMK A01 T10151020  RH  097%=      5-min Rain = 0
KEA1 081321Z 02002KT M02/M02 A3028 RMK A01 T10151020  RH  097%=      5-min Rain = 0
KEA1 081322Z 02002KT M02/M02 A3028 RMK A01 T10151019  RH  097%=      5-min Rain = 0
KEA1 081323Z 02002KT M02/M02 A3028 RMK A01 T10161020  RH  097%=      5-min Rain = 0
KEA1 081324Z 03002KT M02/M02 A3028 RMK A01 T10151020  RH  097%=      5-min Rain = 0
KEA1 081325Z 02002KT M02/M02 A3028 RMK A01 T10161020  RH  097%=      5-min Rain = 0
KEA1 081326Z 02002KT M02/M02 A3028 RMK A01 T10161020  RH  097%=      5-min Rain = 0
KEA1 081327Z 02002KT M02/M02 A3028 RMK A01 T10161020  RH  097%=      5-min Rain = 0
KEA1 081328Z 02002KT M02/M02 A3028 RMK A01 T10151020  RH  097%=      5-min Rain = 0
KEA1 081329Z 02002KT M02/M02 A3028 RMK A01 T10161020  RH  097%=      5-min Rain = 0
KEA1 081330Z 03002KT M02/M02 A3028 RMK A01 T10161020  RH  097%=      5-min Rain = 0
KEA1 081331Z 03002KT M02/M02 A3028 RMK A01 T10161020  RH  097%=      5-min Rain = 0
KEA1 081332Z 03002KT M02/M02 A3028 RMK A01 T10161020  RH  097%=      5-min Rain = 0
KEA1 081333Z 04002KT M02/M02 A3028 RMK A01 T10161020  RH  097%=      5-min Rain = 0
KEA1 081334Z 03002KT M02/M02 A3028 RMK A01 T10161020  RH  097%=      5-min Rain = 0
KEA1 081335Z 03002KT M02/M02 A3028 RMK A01 T10161020  RH  097%=      5-min Rain = 0
KEA1 081336Z 03001KT M02/M02 A3028 RMK A01 T10151020  RH  097%=      5-min Rain = 0
KEA1 081337Z 03001KT M02/M02 A3028 RMK A01 T10161020  RH  097%=      5-min Rain = 0
KEA1 081338Z 03001KT M02/M02 A3028 RMK A01 T10161020  RH  097%=      5-min Rain = 0
KEA1 081339Z 02001KT M02/M02 A3028 RMK A01 T10161020  RH  097%=      5-min Rain = 0
KEA1 081340Z 02001KT M02/M02 A3028 RMK A01 T10151020  RH  097%=      5-min Rain = 0
KEA1 081341Z 02001KT M02/M02 A3028 RMK A01 T10161020  RH  097%=      5-min Rain = 0
KEA1 081342Z 02001KT M02/M02 A3028 RMK A01 T10151020  RH  097%=      5-min Rain = 0
KEA1 081343Z 02001KT M02/M02 A3028 RMK A01 T10161020  RH  097%=      5-min Rain = 0
KEA1 081344Z 02001KT M02/M02 A3028 RMK A01 T10161020  RH  097%=      5-min Rain = 0
KEA1 081345Z 02001KT M02/M02 A3028 RMK A01 T10151020  RH  097%=      5-min Rain = 0
KEA1 081346Z 02001KT M02/M02 A3028 RMK A01 T10161020  RH  097%=      5-min Rain = 0
KEA1 081347Z 02001KT M02/M02 A3028 RMK A01 T10161020  RH  097%=      5-min Rain = 0
KEA1 081348Z 02000KT M02/M02 A3029 RMK A01 T10161020  RH  097%=      5-min Rain = 0
KEA1 081349Z 02000KT M02/M02 A3029 RMK A01 T10161020  RH  097%=      5-min Rain = 0
KEA1 081350Z 00000KT M02/M02 A3029 RMK A01 T10161020  RH  097%=      5-min Rain = 0
KEA1 081351Z 00000KT M02/M02 A3029 RMK A01 T10161020  RH  097%=      5-min Rain = 0
KEA1 081352Z 00000KT M02/M02 A3029 RMK A01 T10161020  RH  097%=      5-min Rain = 0
KEA1 081353Z 00000KT M02/M02 A3029 RMK A01 T10161020  RH  097%=      5-min Rain = 0
KEA1 081354Z 00000KT M02/M02 A3029 RMK A01 T10161020  RH  097%=      5-min Rain = 0
KEA1 081355Z 30001KT M02/M02 A3029 RMK A01 T10161020  RH  097%=      5-min Rain = 0
KEA1 081356Z 30001KT M02/M02 A3029 RMK A01 T10161020  RH  097%=      5-min Rain = 0
KEA1 081357Z 29001KT M02/M02 A3029 RMK A01 T10161020  RH  097%=      5-min Rain = 0
KEA1 081358Z 29002KT M02/M02 A3029 RMK A01 T10161020  RH  097%=      5-min Rain = 0
KEA1 081359Z 28002KT M02/M02 A3029 RMK A01 T10161020  RH  097%=      5-min Rain = 0
KEA1 081400Z 28001KT M02/M02 A3029 RMK A01 T10161020  RH  097%=      5-min Rain = 0
KEA1 081401Z 28001KT M02/M02 A3029 RMK A01 T10161020  RH  097%=      5-min Rain = 0
KEA1 081402Z 28001KT M02/M02 A3029 RMK A01 T10161020  RH  097%=      5-min Rain = 0
KEA1 081403Z 28001KT M02/M02 A303 RMK A01 T10161020  RH  097%=      5-min Rain = 0
KEA1 081404Z 28001KT M02/M02 A303 RMK A01 T10161020  RH  097%=      5-min Rain = 0
KEA1 081405Z 28001KT M02/M02 A303 RMK A01 T10161020  RH  097%=      5-min Rain = 0
KEA1 081406Z 28001KT M02/M02 A303 RMK A01 T10161021  RH  097%=      5-min Rain = 0
KEA1 081407Z 28001KT M02/M02 A303 RMK A01 T10161020  RH  097%=      5-min Rain = 0
KEA1 081408Z 28001KT M02/M02 A303 RMK A01 T10161021  RH  097%=      5-min Rain = 0
KEA1 081409Z 28001KT M02/M02 A303 RMK A01 T10161020  RH  097%=      5-min Rain = 0
KEA1 081410Z 29002KT M02/M02 A303 RMK A01 T10161020  RH  097%=      5-min Rain = 0
KEA1 081411Z 29002KT M02/M02 A303 RMK A01 T10161020  RH  097%=      5-min Rain = 0
KEA1 081412Z 29002KT M02/M02 A303 RMK A01 T10151020  RH  097%=      5-min Rain = 0
KEA1 081413Z 30002KT M02/M02 A303 RMK A01 T10161020  RH  097%=      5-min Rain = 0
KEA1 081414Z 29002KT M02/M02 A303 RMK A01 T10151019  RH  097%=      5-min Rain = 0
KEA1 081415Z 29002KT M02/M02 A303 RMK A01 T10151019  RH  097%=      5-min Rain = 0
KEA1 081416Z 29002KT M02/M02 A303 RMK A01 T10151019  RH  097%=      5-min Rain = 0
KEA1 081417Z 29002KT M02/M02 A303 RMK A01 T10151020  RH  097%=      5-min Rain = 0
KEA1 081418Z 30002KT M02/M02 A303 RMK A01 T10151019  RH  097%=      5-min Rain = 0
KEA1 081419Z 30002KT M02/M02 A303 RMK A01 T10151019  RH  097%=      5-min Rain = 0
KEA1 081420Z 30001KT M01/M02 A303 RMK A01 T10141019  RH  097%=      5-min Rain = 0
KEA1 081421Z 30001KT M02/M02 A303 RMK A01 T10151019  RH  097%=      5-min Rain = 0
KEA1 081422Z 30001KT M02/M02 A303 RMK A01 T10151019  RH  097%=      5-min Rain = 0
KEA1 081423Z 31001KT M02/M02 A303 RMK A01 T10151019  RH  097%=      5-min Rain = 0
KEA1 081424Z 31001KT M01/M02 A303 RMK A01 T10141019  RH  097%=      5-min Rain = 0
KEA1 081425Z 31001KT M01/M02 A303 RMK A01 T10141019  RH  097%=      5-min Rain = 0
KEA1 081426Z 30001KT M01/M02 A303 RMK A01 T10141018  RH  097%=      5-min Rain = 0
KEA1 081427Z 31001KT M01/M02 A303 RMK A01 T10141018  RH  097%=      5-min Rain = 0
KEA1 081428Z 31002KT M01/M02 A303 RMK A01 T10141019  RH  097%=      5-min Rain = 0
KEA1 081429Z 31002KT M01/M02 A303 RMK A01 T10141018  RH  097%=      5-min Rain = 0
KEA1 081430Z 32002KT M01/M02 A303 RMK A01 T10141018  RH  097%=      5-min Rain = 0
KEA1 081431Z 32002KT M01/M02 A303 RMK A01 T10141018  RH  097%=      5-min Rain = 0
KEA1 081432Z 32002KT M01/M02 A303 RMK A01 T10141018  RH  097%=      5-min Rain = 0
KEA1 081433Z 32002KT M01/M02 A303 RMK A01 T10141018  RH  097%=      5-min Rain = 0
KEA1 081434Z 32002KT M01/M02 A303 RMK A01 T10141018  RH  097%=      5-min Rain = 0
KEA1 081435Z 32002KT M01/M02 A303 RMK A01 T10131017  RH  097%=      5-min Rain = 0
KEA1 081436Z 33002KT M01/M02 A303 RMK A01 T10131018  RH  097%=      5-min Rain = 0
KEA1 081437Z 33002KT M01/M02 A3031 RMK A01 T10131017  RH  097%=      5-min Rain = 0
KEA1 081438Z 33002KT M01/M02 A3031 RMK A01 T10131017  RH  097%=      5-min Rain = 0
KEA1 081439Z 33002KT M01/M02 A3031 RMK A01 T10131018  RH  097%=      5-min Rain = 0
KEA1 081440Z 33002KT M01/M02 A3031 RMK A01 T10131017  RH  097%=      5-min Rain = 0
KEA1 081441Z 33002KT M01/M02 A3031 RMK A01 T10131017  RH  097%=      5-min Rain = 0
KEA1 081442Z 33002KT M01/M02 A3031 RMK A01 T10131017  RH  097%=      5-min Rain = 0
KEA1 081443Z 34002KT M01/M02 A3031 RMK A01 T10131017  RH  097%=      5-min Rain = 0
KEA1 081444Z 34002KT M01/M02 A3031 RMK A01 T10131017  RH  097%=      5-min Rain = 0
KEA1 081445Z 34002KT M01/M02 A3031 RMK A01 T10131017  RH  097%=      5-min Rain = 0
KEA1 081446Z 35002KT M01/M02 A3031 RMK A01 T10131017  RH  097%=      5-min Rain = 0
KEA1 081447Z 34002KT M01/M02 A3031 RMK A01 T10131017  RH  097%=      5-min Rain = 0
KEA1 081448Z 34002KT M01/M02 A3031 RMK A01 T10121017  RH  097%=      5-min Rain = 0
KEA1 081449Z 34002KT M01/M02 A3031 RMK A01 T10121017  RH  097%=      5-min Rain = 0
KEA1 081450Z 34002KT M01/M02 A3031 RMK A01 T10121017  RH  097%=      5-min Rain = 0
KEA1 081451Z 34002KT M01/M02 A3031 RMK A01 T10121017  RH  097%=      5-min Rain = 0
KEA1 081452Z 34002KT M01/M02 A3031 RMK A01 T10121016  RH  097%=      5-min Rain = 0
KEA1 081453Z 35002KT M01/M02 A3031 RMK A01 T10121016  RH  097%=      5-min Rain = 0
KEA1 081454Z 35002KT M01/M02 A3031 RMK A01 T10121017  RH  097%=      5-min Rain = 0
KEA1 081455Z 35002KT M01/M02 A3031 RMK A01 T10121016  RH  097%=      5-min Rain = 0
KEA1 081456Z 36002KT M01/M02 A3031 RMK A01 T10121017  RH  097%=      5-min Rain = 0
KEA1 081457Z 36002KT M01/M02 A3031 RMK A01 T10121016  RH  097%=      5-min Rain = 0
KEA1 081458Z 00002KT M01/M02 A3031 RMK A01 T10121017  RH  097%=      5-min Rain = 0
KEA1 081459Z 00002KT M01/M02 A3031 RMK A01 T10121017  RH  097%=      5-min Rain = 0
KEA1 081500Z 01002KT M01/M02 A3031 RMK A01 T10121016  RH  097%=      5-min Rain = 0
KEA1 081501Z 00001KT M01/M02 A3031 RMK A01 T10111016  RH  097%=      5-min Rain = 0
KEA1 081502Z 00002KT M01/M02 A3031 RMK A01 T10111016  RH  097%=      5-min Rain = 0
KEA1 081503Z 01002KT M01/M02 A3031 RMK A01 T10111016  RH  097%=      5-min Rain = 0
KEA1 081504Z 01003KT M01/M02 A3031 RMK A01 T10111016  RH  097%=      5-min Rain = 0
KEA1 081505Z 01002KT M01/M02 A3031 RMK A01 T10111016  RH  097%=      5-min Rain = 0
KEA1 081506Z 01002KT M01/M02 A3031 RMK A01 T10111016  RH  097%=      5-min Rain = 0
KEA1 081507Z 01002KT M01/M02 A3031 RMK A01 T10101015  RH  097%=      5-min Rain = 0
KEA1 081508Z 01002KT M01/M02 A3031 RMK A01 T10111015  RH  097%=      5-min Rain = 0
KEA1 081509Z 01002KT M01/M02 A3031 RMK A01 T10101015  RH  097%=      5-min Rain = 0
KEA1 081510Z 02002KT M01/M02 A3031 RMK A01 T10101015  RH  097%=      5-min Rain = 0
KEA1 081511Z 02002KT M01/M02 A3031 RMK A01 T10101015  RH  097%=      5-min Rain = 0
KEA1 081512Z 02002KT M01/M01 A3031 RMK A01 T10101014  RH  097%=      5-min Rain = 0
KEA1 081513Z 01003KT M01/M01 A3031 RMK A01 T10101014  RH  097%=      5-min Rain = 0
KEA1 081514Z 02002KT M01/M01 A3031 RMK A01 T10101014  RH  097%=      5-min Rain = 0
KEA1 081515Z 02002KT M01/M01 A3031 RMK A01 T10091014  RH  097%=      5-min Rain = 0
KEA1 081516Z 03002KT M01/M01 A3031 RMK A01 T10091014  RH  097%=      5-min Rain = 0
KEA1 081517Z 03003KT M01/M01 A3031 RMK A01 T10091014  RH  097%=      5-min Rain = 0
KEA1 081518Z 03003KT M01/M01 A3031 RMK A01 T10091014  RH  096%=      5-min Rain = 0
KEA1 081519Z 03003KT M01/M02 A3031 RMK A01 T10101015  RH  096%=      5-min Rain = 0
KEA1 081520Z 03003KT M01/M02 A3031 RMK A01 T10091015  RH  096%=      5-min Rain = 0
KEA1 081521Z 03003KT M01/M02 A3031 RMK A01 T10101015  RH  096%=      5-min Rain = 0
KEA1 081522Z 02004KT M01/M02 A3031 RMK A01 T10101015  RH  096%=      5-min Rain = 0
KEA1 081523Z 03004KT M01/M02 A3031 RMK A01 T10101015  RH  096%=      5-min Rain = 0
KEA1 081524Z 02003KT M01/M02 A3031 RMK A01 T10101015  RH  096%=      5-min Rain = 0
KEA1 081525Z 02004KT M01/M02 A3032 RMK A01 T10101015  RH  096%=      5-min Rain = 0
KEA1 081526Z 01004KT M01/M01 A3032 RMK A01 T10091014  RH  096%=      5-min Rain = 0
KEA1 081527Z 00003KT M01/M01 A3032 RMK A01 T10091014  RH  096%=      5-min Rain = 0
KEA1 081528Z 01004KT M01/M01 A3032 RMK A01 T10081014  RH  096%=      5-min Rain = 0
KEA1 081529Z 36004KT M01/M01 A3032 RMK A01 T10081013  RH  096%=      5-min Rain = 0
KEA1 081530Z 36004KT M01/M01 A3032 RMK A01 T10081014  RH  096%=      5-min Rain = 0
KEA1 081531Z 35004KT M01/M01 A3032 RMK A01 T10081014  RH  096%=      5-min Rain = 0
KEA1 081532Z 36003KT M01/M01 A3032 RMK A01 T10081013  RH  096%=      5-min Rain = 0
KEA1 081533Z 36004KT M01/M01 A3032 RMK A01 T10071012  RH  096%=      5-min Rain = 0
KEA1 081534Z 36004KT M01/M01 A3032 RMK A01 T10071013  RH  096%=      5-min Rain = 0
KEA1 081535Z 01004KT M01/M01 A3032 RMK A01 T10071013  RH  096%=      5-min Rain = 0
KEA1 081536Z 36003KT M01/M01 A3032 RMK A01 T10071013  RH  096%=      5-min Rain = 0
KEA1 081537Z 00004KT M01/M01 A3032 RMK A01 T10071013  RH  096%=      5-min Rain = 0
KEA1 081538Z 36004KT M01/M01 A3032 RMK A01 T10071013  RH  096%=      5-min Rain = 0
KEA1 081539Z 36004KT M01/M01 A3032 RMK A01 T10061013  RH  096%=      5-min Rain = 0
KEA1 081540Z 36004KT M01/M01 A3032 RMK A01 T10071013  RH  096%=      5-min Rain = 0
KEA1 081541Z 35004KT M01/M01 A3032 RMK A01 T10071013  RH  096%=      5-min Rain = 0
KEA1 081542Z 01004KT M01/M01 A3032 RMK A01 T10071013  RH  096%=      5-min Rain = 0
KEA1 081543Z 01005KT M01/M01 A3032 RMK A01 T10061012  RH  096%=      5-min Rain = 0
KEA1 081544Z 00005KT M01/M01 A3032 RMK A01 T10071013  RH  096%=      5-min Rain = 0
KEA1 081545Z 00005KT M01/M01 A3032 RMK A01 T10061013  RH  095%=      5-min Rain = 0
KEA1 081546Z 35005KT M01/M01 A3032 RMK A01 T10061013  RH  095%=      5-min Rain = 0
KEA1 081547Z 35005KT M01/M01 A3032 RMK A01 T10061013  RH  095%=      5-min Rain = 0
KEA1 081548Z 01004KT M01/M01 A3032 RMK A01 T10061013  RH  095%=      5-min Rain = 0
KEA1 081549Z 00005KT M01/M01 A3032 RMK A01 T10061012  RH  095%=      5-min Rain = 0
KEA1 081550Z 36005KT M01/M01 A3032 RMK A01 T10051012  RH  095%=      5-min Rain = 0
KEA1 081551Z 01005KT M01/M01 A3032 RMK A01 T10061012  RH  095%=      5-min Rain = 0
KEA1 081552Z 01005KT M01/M01 A3032 RMK A01 T10051012  RH  095%=      5-min Rain = 0
KEA1 081553Z 01005KT M01/M01 A3032 RMK A01 T10051012  RH  095%=      5-min Rain = 0
KEA1 081554Z 01005KT M01/M01 A3032 RMK A01 T10051012  RH  095%=      5-min Rain = 0
KEA1 081555Z 01006KT M01/M01 A3032 RMK A01 T10051012  RH  095%=      5-min Rain = 0
KEA1 081556Z 01005KT M01/M01 A3032 RMK A01 T10051013  RH  095%=      5-min Rain = 0
KEA1 081557Z 01005KT M01/M01 A3032 RMK A01 T10061013  RH  095%=      5-min Rain = 0
KEA1 081558Z 00004KT M01/M01 A3032 RMK A01 T10061013  RH  095%=      5-min Rain = 0
KEA1 081559Z 01005KT M01/M01 A3032 RMK A01 T10051012  RH  095%=      5-min Rain = 0
KEA1 081600Z 01007KT M01/M01 A3032 RMK A01 T10051013  RH  095%=      5-min Rain = 0
KEA1 081601Z 01006KT M01/M01 A3032 RMK A01 T10061014  RH  094%=      5-min Rain = 0
KEA1 081602Z 01005KT M01/M01 A3032 RMK A01 T10051014  RH  094%=      5-min Rain = 0
KEA1 081603Z 00005KT M01/M01 A3032 RMK A01 T10061014  RH  094%=      5-min Rain = 0
KEA1 081604Z 00005KT M01/M01 A3032 RMK A01 T10051013  RH  094%=      5-min Rain = 0
KEA1 081605Z 36006KT M01/M01 A3032 RMK A01 T10051014  RH  094%=      5-min Rain = 0
KEA1 081606Z 36006KT M01/M01 A3032 RMK A01 T10061014  RH  094%=      5-min Rain = 0
KEA1 081607Z 00006KT M01/M01 A3032 RMK A01 T10051014  RH  094%=      5-min Rain = 0
KEA1 081608Z 36005KT M01/M01 A3032 RMK A01 T10051014  RH  094%=      5-min Rain = 0
KEA1 081609Z 36005KT M01/M01 A3032 RMK A01 T10051014  RH  094%=      5-min Rain = 0
KEA1 081610Z 00006KT M01/M01 A3032 RMK A01 T10051013  RH  094%=      5-min Rain = 0
KEA1 081611Z 01006KT M00/M01 A3032 RMK A01 T10041012  RH  094%=      5-min Rain = 0
KEA1 081612Z 01007KT M00/M01 A3032 RMK A01 T10041013  RH  094%=      5-min Rain = 0
KEA1 081613Z 02006KT M00/M01 A3032 RMK A01 T10041013  RH  094%=      5-min Rain = 0
KEA1 081614Z 01006KT M00/M01 A3032 RMK A01 T10041013  RH  094%=      5-min Rain = 0
KEA1 081615Z 01005KT M00/M01 A3032 RMK A01 T10041013  RH  094%=      5-min Rain = 0
KEA1 081616Z 01006KT M00/M01 A3032 RMK A01 T10041013  RH  094%=      5-min Rain = 0
KEA1 081617Z 01005KT M00/M01 A3032 RMK A01 T10041013  RH  094%=      5-min Rain = 0
KEA1 081618Z 01005KT M00/M01 A3032 RMK A01 T10031013  RH  093%=      5-min Rain = 0
KEA1 081619Z 01006KT M00/M01 A3032 RMK A01 T10031012  RH  094%=      5-min Rain = 0
KEA1 081620Z 36006KT M00/M01 A3032 RMK A01 T10031012  RH  093%=      5-min Rain = 0
KEA1 081621Z 00006KT M00/M01 A3032 RMK A01 T10021012  RH  093%=      5-min Rain = 0
KEA1 081622Z 00006KT M00/M01 A3032 RMK A01 T10021012  RH  093%=      5-min Rain = 0
KEA1 081623Z 00006KT M00/M01 A3032 RMK A01 T10021012  RH  093%=      5-min Rain = 0
KEA1 081624Z 01006KT M00/M01 A3032 RMK A01 T10021013  RH  093%=      5-min Rain = 0
KEA1 081625Z 01005KT M00/M01 A3032 RMK A01 T10021013  RH  093%=      5-min Rain = 0
KEA1 081626Z 00004KT M00/M01 A3032 RMK A01 T10021013  RH  093%=      5-min Rain = 0
KEA1 081627Z 01005KT M00/M01 A3032 RMK A01 T10021012  RH  093%=      5-min Rain = 0
KEA1 081628Z 01006KT M00/M01 A3032 RMK A01 T10011011  RH  093%=      5-min Rain = 0
KEA1 081629Z 01005KT M00/M01 A3032 RMK A01 T10011012  RH  093%=      5-min Rain = 0
KEA1 081630Z 00006KT M00/M01 A3032 RMK A01 T10021013  RH  092%=      5-min Rain = 0
KEA1 081631Z 00006KT M00/M01 A3033 RMK A01 T10021013  RH  092%=      5-min Rain = 0
KEA1 081632Z 01006KT M00/M01 A3032 RMK A01 T10021013  RH  092%=      5-min Rain = 0
KEA1 081633Z 00006KT M00/M01 A3033 RMK A01 T10021014  RH  092%=      5-min Rain = 0
KEA1 081634Z 01004KT M00/M01 A3033 RMK A01 T10021014  RH  092%=      5-min Rain = 0
KEA1 081635Z 01005KT M00/M01 A3032 RMK A01 T10021013  RH  092%=      5-min Rain = 0
KEA1 081636Z 00005KT M00/M01 A3033 RMK A01 T10011012  RH  092%=      5-min Rain = 0
KEA1 081637Z 01006KT M00/M01 A3033 RMK A01 T10011011  RH  093%=      5-min Rain = 0
KEA1 081638Z 01005KT 00/01 A3032 RMK A01 T00-00-12  RH  092%=      5-min Rain = 0
KEA1 081639Z 01005KT M00/M01 A3032 RMK A01 T10011012  RH  092%=      5-min Rain = 0
KEA1 081640Z 01007KT 00/01 A3032 RMK A01 T00-00-12  RH  092%=      5-min Rain = 0
KEA1 081641Z 01006KT 00/01 A3032 RMK A01 T00-00-12  RH  092%=      5-min Rain = 0
KEA1 081642Z 01005KT 00/01 A3032 RMK A01 T00-00-12  RH  092%=      5-min Rain = 0
KEA1 081643Z 01006KT M00/M01 A3032 RMK A01 T10011012  RH  092%=      5-min Rain = 0
KEA1 081644Z 01006KT 00/01 A3032 RMK A01 T00000-12  RH  092%=      5-min Rain = 0
KEA1 081645Z 01005KT 00/01 A3032 RMK A01 T00000-12  RH  092%=      5-min Rain = 0
KEA1 081646Z 02006KT 00/M01 A3032 RMK A01 T00011012  RH  092%=      5-min Rain = 0
KEA1 081647Z 02006KT 00/01 A3032 RMK A01 T00000-12  RH  091%=      5-min Rain = 0
KEA1 081648Z 02005KT 00/M01 A3032 RMK A01 T00011012  RH  091%=      5-min Rain = 0
KEA1 081649Z 02005KT 00/M01 A3032 RMK A01 T00011012  RH  091%=      5-min Rain = 0
KEA1 081650Z 02006KT 00/01 A3032 RMK A01 T00000-12  RH  091%=      5-min Rain = 0
KEA1 081651Z 01006KT 00/01 A3032 RMK A01 T00000-12  RH  091%=      5-min Rain = 0
KEA1 081652Z 01006KT 00/M01 A3032 RMK A01 T00011012  RH  091%=      5-min Rain = 0
KEA1 081653Z 01006KT 00/01 A3032 RMK A01 T00000-13  RH  091%=      5-min Rain = 0
KEA1 081654Z 01006KT 00/M01 A3032 RMK A01 T00011012  RH  091%=      5-min Rain = 0
KEA1 081655Z 01006KT 00/M01 A3032 RMK A01 T00011012  RH  091%=      5-min Rain = 0
KEA1 081656Z 01006KT 00/M01 A3032 RMK A01 T00011012  RH  091%=      5-min Rain = 0
KEA1 081657Z 01006KT 00/M01 A3032 RMK A01 T00011012  RH  091%=      5-min Rain = 0
KEA1 081658Z 01006KT 00/M01 A3032 RMK A01 T00011012  RH  091%=      5-min Rain = 0
KEA1 081659Z 01007KT 00/M01 A3032 RMK A01 T00011013  RH  091%=      5-min Rain = 0
KEA1 081700Z 00006KT 00/M01 A3032 RMK A01 T00011013  RH  091%=      5-min Rain = 0
KEA1 081701Z 01006KT 00/01 A3032 RMK A01 T00000-13  RH  091%=      5-min Rain = 0
KEA1 081702Z 02006KT 00/01 A3032 RMK A01 T00000-13  RH  091%=      5-min Rain = 0
KEA1 081703Z 02006KT 00/01 A3032 RMK A01 T00000-13  RH  091%=      5-min Rain = 0
KEA1 081704Z 01006KT 00/01 A3032 RMK A01 T00000-14  RH  090%=      5-min Rain = 0
KEA1 081705Z 01005KT 00/01 A3032 RMK A01 T00000-14  RH  090%=      5-min Rain = 0
KEA1 081706Z 01005KT 00/01 A3032 RMK A01 T00000-14  RH  090%=      5-min Rain = 0
KEA1 081707Z 02006KT 00/01 A3032 RMK A01 T00000-13  RH  091%=      5-min Rain = 0
KEA1 081708Z 01006KT 00/01 A3032 RMK A01 T00000-14  RH  090%=      5-min Rain = 0
KEA1 081709Z 00006KT 00/01 A3032 RMK A01 T00000-14  RH  090%=      5-min Rain = 0
KEA1 081710Z 36005KT 00/01 A3032 RMK A01 T00000-14  RH  090%=      5-min Rain = 0
KEA1 081711Z 00006KT 00/M01 A3032 RMK A01 T00011013  RH  090%=      5-min Rain = 0
KEA1 081712Z 35006KT 00/M01 A3032 RMK A01 T00011013  RH  090%=      5-min Rain = 0
KEA1 081713Z 35005KT 00/M01 A3032 RMK A01 T00011013  RH  090%=      5-min Rain = 0
KEA1 081714Z 01005KT 00/M01 A3032 RMK A01 T00021012  RH  090%=      5-min Rain = 0
KEA1 081715Z 35005KT 00/M01 A3032 RMK A01 T00021012  RH  090%=      5-min Rain = 0
KEA1 081716Z 00005KT 00/M01 A3032 RMK A01 T00021012  RH  090%=      5-min Rain = 0
KEA1 081717Z 00006KT 00/M01 A3032 RMK A01 T00021014  RH  089%=      5-min Rain = 0
KEA1 081718Z 36006KT 00/M01 A3032 RMK A01 T00021014  RH  090%=      5-min Rain = 0
KEA1 081719Z 36006KT 00/M01 A3032 RMK A01 T00011014  RH  089%=      5-min Rain = 0
KEA1 081720Z 36006KT 00/M01 A3032 RMK A01 T00011014  RH  089%=      5-min Rain = 0
KEA1 081721Z 00006KT 00/M01 A3032 RMK A01 T00011014  RH  089%=      5-min Rain = 0
KEA1 081722Z 00005KT 00/M02 A3032 RMK A01 T00011015  RH  089%=      5-min Rain = 0
KEA1 081723Z 01006KT 00/M02 A3032 RMK A01 T00011015  RH  089%=      5-min Rain = 0
KEA1 081724Z 01005KT 00/M01 A3032 RMK A01 T00021014  RH  090%=      5-min Rain = 0
KEA1 081725Z 00006KT 00/M01 A3032 RMK A01 T00021013  RH  090%=      5-min Rain = 0
KEA1 081726Z 01005KT 00/M01 A3032 RMK A01 T00031013  RH  089%=      5-min Rain = 0
KEA1 081727Z 00006KT 00/M01 A3032 RMK A01 T00021013  RH  089%=      5-min Rain = 0
KEA1 081728Z 01006KT 00/M01 A3032 RMK A01 T00031013  RH  089%=      5-min Rain = 0
KEA1 081729Z 02006KT 00/M01 A3032 RMK A01 T00031013  RH  089%=      5-min Rain = 0
KEA1 081730Z 01006KT 00/M01 A3032 RMK A01 T00031013  RH  089%=      5-min Rain = 0
KEA1 081731Z 01006KT 00/M01 A3032 RMK A01 T00031012  RH  089%=      5-min Rain = 0
KEA1 081732Z 01005KT 00/M01 A3032 RMK A01 T00031013  RH  089%=      5-min Rain = 0
KEA1 081733Z 00005KT 00/M01 A3032 RMK A01 T00031014  RH  089%=      5-min Rain = 0
KEA1 081734Z 01006KT 00/M01 A3032 RMK A01 T00021014  RH  089%=      5-min Rain = 0
KEA1 081735Z 01005KT 00/M02 A3031 RMK A01 T00021015  RH  088%=      5-min Rain = 0
KEA1 081736Z 00005KT 00/M02 A3031 RMK A01 T00021015  RH  088%=      5-min Rain = 0
KEA1 081737Z 00004KT 00/M02 A3031 RMK A01 T00021015  RH  088%=      5-min Rain = 0
KEA1 081738Z 00005KT 00/M01 A3031 RMK A01 T00031014  RH  089%=      5-min Rain = 0
KEA1 081739Z 01005KT 00/M01 A3031 RMK A01 T00031014  RH  088%=      5-min Rain = 0
KEA1 081740Z 01005KT 00/M02 A3031 RMK A01 T00021015  RH  088%=      5-min Rain = 0
KEA1 081741Z 36005KT 00/M02 A3031 RMK A01 T00021016  RH  088%=      5-min Rain = 0
KEA1 081742Z 00006KT 00/M02 A3031 RMK A01 T00031015  RH  088%=      5-min Rain = 0
KEA1 081743Z 01005KT 00/M02 A3031 RMK A01 T00021016  RH  087%=      5-min Rain = 0
KEA1 081744Z 00005KT 00/M02 A3031 RMK A01 T00021016  RH  087%=      5-min Rain = 0
KEA1 081745Z 01005KT 00/M02 A3031 RMK A01 T00031015  RH  088%=      5-min Rain = 0
KEA1 081746Z 00005KT 00/M02 A3031 RMK A01 T00031015  RH  087%=      5-min Rain = 0
KEA1 081747Z 00004KT 00/M02 A3031 RMK A01 T00031016  RH  087%=      5-min Rain = 0
KEA1 081748Z 01005KT 00/M02 A3031 RMK A01 T00041015  RH  087%=      5-min Rain = 0
KEA1 081749Z 01004KT 00/M01 A3031 RMK A01 T00041014  RH  088%=      5-min Rain = 0
KEA1 081750Z 01005KT 01/M01 A3031 RMK A01 T00051013  RH  088%=      5-min Rain = 0
KEA1 081751Z 01005KT 01/M01 A3031 RMK A01 T00051014  RH  087%=      5-min Rain = 0
KEA1 081752Z 01005KT 01/M01 A3031 RMK A01 T00051014  RH  087%=      5-min Rain = 0
KEA1 081753Z 02006KT 01/M02 A3031 RMK A01 T00061015  RH  086%=      5-min Rain = 0
KEA1 081754Z 02005KT 01/M02 A3031 RMK A01 T00051016  RH  086%=      5-min Rain = 0
KEA1 081755Z 02005KT 01/M02 A3031 RMK A01 T00051016  RH  086%=      5-min Rain = 0
KEA1 081756Z 02005KT 01/M02 A3031 RMK A01 T00051015  RH  086%=      5-min Rain = 0
KEA1 081757Z 02004KT 01/M02 A3031 RMK A01 T00061016  RH  086%=      5-min Rain = 0
KEA1 081758Z 03005KT 01/M02 A3031 RMK A01 T00051016  RH  086%=      5-min Rain = 0
KEA1 081759Z 02005KT 01/M02 A303 RMK A01 T00051016  RH  086%=      5-min Rain = 0.01
KEA1 081800Z 02005KT 01/M02 A303 RMK A01 T00051016  RH  086%=      5-min Rain = 0
KEA1 081801Z 01005KT 01/M01 A303 RMK A01 T00061014  RH  086%=      5-min Rain = 0
KEA1 081802Z 01006KT 01/M01 A303 RMK A01 T00061013  RH  087%=      5-min Rain = 0
KEA1 081803Z 01005KT 01/M02 A303 RMK A01 T00061015  RH  086%=      5-min Rain = 0
KEA1 081804Z 01005KT 01/M01 A303 RMK A01 T00071014  RH  086%=      5-min Rain = 0
KEA1 081805Z 01005KT 01/M02 A303 RMK A01 T00071015  RH  085%=      5-min Rain = 0
KEA1 081806Z 01004KT 01/M02 A303 RMK A01 T00061015  RH  086%=      5-min Rain = 0
KEA1 081807Z 01005KT 01/M01 A303 RMK A01 T00071014  RH  086%=      5-min Rain = 0
KEA1 081808Z 01004KT 01/M01 A303 RMK A01 T00071014  RH  086%=      5-min Rain = 0
KEA1 081809Z 00004KT 01/M02 A303 RMK A01 T00071015  RH  085%=      5-min Rain = 0
KEA1 081810Z 01005KT 01/M02 A303 RMK A01 T00071015  RH  086%=      5-min Rain = 0
KEA1 081811Z 01005KT 01/M02 A303 RMK A01 T00071015  RH  085%=      5-min Rain = 0.01
KEA1 081812Z 03005KT 01/M02 A303 RMK A01 T00071015  RH  085%=      5-min Rain = 0
KEA1 081813Z 03005KT 01/M02 A303 RMK A01 T00071016  RH  084%=      5-min Rain = 0
KEA1 081814Z 02006KT 01/M02 A303 RMK A01 T00061017  RH  085%=      5-min Rain = 0
KEA1 081815Z 01005KT 01/M02 A303 RMK A01 T00061017  RH  085%=      5-min Rain = 0
KEA1 081816Z 01005KT 01/M02 A303 RMK A01 T00061017  RH  085%=      5-min Rain = 0
KEA1 081817Z 02004KT 01/M02 A303 RMK A01 T00071015  RH  085%=      5-min Rain = 0
KEA1 081818Z 03005KT 01/M02 A303 RMK A01 T00071015  RH  085%=      5-min Rain = 0
KEA1 081819Z 04005KT 01/M02 A303 RMK A01 T00071017  RH  084%=      5-min Rain = 0
KEA1 081820Z 03005KT 01/M02 A303 RMK A01 T00071017  RH  084%=      5-min Rain = 0
KEA1 081821Z 01005KT 01/M02 A303 RMK A01 T00071016  RH  085%=      5-min Rain = 0
KEA1 081822Z 35004KT 01/M02 A303 RMK A01 T00071016  RH  084%=      5-min Rain = 0
KEA1 081823Z 01005KT 01/M02 A303 RMK A01 T00071015  RH  085%=      5-min Rain = 0
KEA1 081824Z 01004KT 01/M01 A3029 RMK A01 T00081014  RH  085%=      5-min Rain = 0
KEA1 081825Z 01005KT 01/M02 A3029 RMK A01 T00081015  RH  084%=      5-min Rain = 0.01
KEA1 081826Z 01004KT 01/M02 A3029 RMK A01 T00081016  RH  084%=      5-min Rain = 0
KEA1 081827Z 35004KT 01/M01 A3029 RMK A01 T00091014  RH  085%=      5-min Rain = 0
KEA1 081828Z 36005KT 01/M02 A3029 RMK A01 T00091016  RH  083%=      5-min Rain = 0
KEA1 081829Z 35005KT 01/M02 A3029 RMK A01 T00081018  RH  083%=      5-min Rain = 0
KEA1 081830Z 34004KT 01/M02 A303 RMK A01 T00071018  RH  083%=      5-min Rain = 0
KEA1 081831Z 35005KT 01/M02 A303 RMK A01 T00071017  RH  084%=      5-min Rain = 0
KEA1 081832Z 36004KT 01/M02 A3029 RMK A01 T00081017  RH  083%=      5-min Rain = 0
KEA1 081833Z 36003KT 01/M02 A3029 RMK A01 T00071018  RH  083%=      5-min Rain = 0
KEA1 081834Z 35005KT 01/M02 A3029 RMK A01 T00081017  RH  083%=      5-min Rain = 0
KEA1 081835Z 35005KT 01/M02 A3029 RMK A01 T00081018  RH  083%=      5-min Rain = 0
KEA1 081836Z 35004KT 01/M02 A3029 RMK A01 T00081018  RH  083%=      5-min Rain = 0
KEA1 081837Z 35004KT 01/M02 A3029 RMK A01 T00081016  RH  084%=      5-min Rain = 0.01
KEA1 081838Z 35005KT 01/M02 A3029 RMK A01 T00091015  RH  084%=      5-min Rain = 0
KEA1 081839Z 01004KT 01/M02 A3029 RMK A01 T00101017  RH  082%=      5-min Rain = 0
KEA1 081840Z 03004KT 01/M02 A3029 RMK A01 T00101015  RH  084%=      5-min Rain = 0
KEA1 081841Z 02004KT 01/M02 A3029 RMK A01 T00111016  RH  082%=      5-min Rain = 0
KEA1 081842Z 03004KT 01/M02 A3029 RMK A01 T00101018  RH  082%=      5-min Rain = 0
KEA1 081843Z 03003KT 01/M02 A3029 RMK A01 T00101017  RH  082%=      5-min Rain = 0
KEA1 081844Z 01005KT 01/M02 A3029 RMK A01 T00101016  RH  083%=      5-min Rain = 0
KEA1 081845Z 35004KT 01/M02 A3029 RMK A01 T00101017  RH  082%=      5-min Rain = 0
KEA1 081846Z 00004KT 01/M02 A3029 RMK A01 T00111015  RH  083%=      5-min Rain = 0
KEA1 081847Z 01005KT 01/M02 A3028 RMK A01 T00121015  RH  082%=      5-min Rain = 0
KEA1 081848Z 03004KT 01/M02 A3028 RMK A01 T00121018  RH  081%=      5-min Rain = 0
KEA1 081849Z 03005KT 01/M02 A3028 RMK A01 T00111018  RH  081%=      5-min Rain = 0
KEA1 081850Z 03005KT 01/M02 A3028 RMK A01 T00101018  RH  082%=      5-min Rain = 0
KEA1 081851Z 02004KT 01/M02 A3028 RMK A01 T00101018  RH  082%=      5-min Rain = 0
KEA1 081852Z 02005KT 01/M02 A3028 RMK A01 T00101018  RH  082%=      5-min Rain = 0
KEA1 081853Z 02005KT 01/M02 A3028 RMK A01 T00101019  RH  081%=      5-min Rain = 0
KEA1 081854Z 01005KT 01/M02 A3028 RMK A01 T00101019  RH  081%=      5-min Rain = 0.01
KEA1 081855Z 01004KT 01/M02 A3028 RMK A01 T00111016  RH  082%=      5-min Rain = 0
KEA1 081856Z 02004KT 01/M02 A3028 RMK A01 T00121016  RH  082%=      5-min Rain = 0
KEA1 081857Z 02004KT 01/M02 A3028 RMK A01 T00121017  RH  081%=      5-min Rain = 0
KEA1 081858Z 01004KT 01/M02 A3028 RMK A01 T00121018  RH  081%=      5-min Rain = 0
KEA1 081859Z 01004KT 01/M02 A3028 RMK A01 T00121015  RH  082%=      5-min Rain = 0
KEA1 081900Z 01004KT 01/M02 A3028 RMK A01 T00141015  RH  081%=      5-min Rain = 0
KEA1 081901Z 00004KT 01/M02 A3028 RMK A01 T00141016  RH  081%=      5-min Rain = 0
KEA1 081902Z 00004KT 01/M02 A3028 RMK A01 T00141017  RH  080%=      5-min Rain = 0
KEA1 081903Z 02004KT 01/M02 A3028 RMK A01 T00121020  RH  079%=      5-min Rain = 0
KEA1 081904Z 02004KT 01/M02 A3028 RMK A01 T00131015  RH  082%=      5-min Rain = 0
KEA1 081905Z 01005KT 01/M01 A3028 RMK A01 T00141014  RH  081%=      5-min Rain = 0
KEA1 081906Z 01005KT 02/M02 A3028 RMK A01 T00151017  RH  079%=      5-min Rain = 0
KEA1 081907Z 35004KT 02/M02 A3028 RMK A01 T00151018  RH  079%=      5-min Rain = 0
KEA1 081908Z 02004KT 01/M02 A3028 RMK A01 T00141018  RH  079%=      5-min Rain = 0
KEA1 081909Z 02004KT 02/M02 A3028 RMK A01 T00151020  RH  078%=      5-min Rain = 0
KEA1 081910Z 02005KT 02/M02 A3028 RMK A01 T00161018  RH  079%=      5-min Rain = 0
KEA1 081911Z 01003KT 02/M02 A3028 RMK A01 T00161017  RH  079%=      5-min Rain = 0
KEA1 081912Z 02003KT 02/M02 A3028 RMK A01 T00161015  RH  080%=      5-min Rain = 0
KEA1 081913Z 03005KT 02/M02 A3028 RMK A01 T00161019  RH  077%=      5-min Rain = 0
KEA1 081914Z 03004KT 02/M02 A3028 RMK A01 T00151020  RH  078%=      5-min Rain = 0
KEA1 081915Z 02004KT 01/M02 A3028 RMK A01 T00141019  RH  079%=      5-min Rain = 0
KEA1 081916Z 02004KT 01/M02 A3028 RMK A01 T00141019  RH  079%=      5-min Rain = 0
KEA1 081917Z 02004KT 01/M02 A3028 RMK A01 T00141019  RH  079%=      5-min Rain = 0
KEA1 081918Z 00004KT 01/M02 A3028 RMK A01 T00141017  RH  080%=      5-min Rain = 0
KEA1 081919Z 33003KT 02/M02 A3028 RMK A01 T00151016  RH  079%=      5-min Rain = 0
KEA1 081920Z 35003KT 01/M02 A3028 RMK A01 T00141020  RH  078%=      5-min Rain = 0
KEA1 081921Z 01002KT 01/M02 A3028 RMK A01 T00141020  RH  078%=      5-min Rain = 0
KEA1 081922Z 02002KT 02/M02 A3028 RMK A01 T00151017  RH  079%=      5-min Rain = 0
KEA1 081923Z 01002KT 02/M02 A3028 RMK A01 T00171016  RH  079%=      5-min Rain = 0
KEA1 081924Z 35002KT 02/M02 A3028 RMK A01 T00181015  RH  079%=      5-min Rain = 0
KEA1 081925Z 35004KT 02/M02 A3028 RMK A01 T00181017  RH  077%=      5-min Rain = 0
KEA1 081926Z 34004KT 02/M02 A3028 RMK A01 T00181018  RH  077%=      5-min Rain = 0
KEA1 081927Z 35003KT 02/M02 A3028 RMK A01 T00161022  RH  076%=      5-min Rain = 0
KEA1 081928Z 01001KT 02/M02 A3028 RMK A01 T00151021  RH  077%=      5-min Rain = 0
KEA1 081929Z 35002KT 02/M02 A3028 RMK A01 T00161018  RH  078%=      5-min Rain = 0
KEA1 081930Z 34002KT 02/M02 A3028 RMK A01 T00171020  RH  077%=      5-min Rain = 0
KEA1 081931Z 02003KT 02/M02 A3028 RMK A01 T00171020  RH  077%=      5-min Rain = 0
KEA1 081932Z 01004KT 02/M02 A3027 RMK A01 T00171018  RH  077%=      5-min Rain = 0
KEA1 081933Z 02004KT 02/M02 A3027 RMK A01 T00181018  RH  077%=      5-min Rain = 0
KEA1 081934Z 35004KT 02/M02 A3027 RMK A01 T00181018  RH  077%=      5-min Rain = 0
KEA1 081935Z 33004KT 02/M02 A3027 RMK A01 T00181018  RH  077%=      5-min Rain = 0
KEA1 081936Z 33002KT 02/M02 A3027 RMK A01 T00171018  RH  078%=      5-min Rain = 0
KEA1 081937Z 35001KT 02/M02 A3027 RMK A01 T00171019  RH  077%=      5-min Rain = 0
KEA1 081938Z 00002KT 02/M01 A3027 RMK A01 T00191014  RH  079%=      5-min Rain = 0
KEA1 081939Z 00002KT 02/M02 A3027 RMK A01 T00201016  RH  077%=      5-min Rain = 0
KEA1 081940Z 01003KT 02/M01 A3027 RMK A01 T00211014  RH  077%=      5-min Rain = 0
KEA1 081941Z 34003KT 02/M02 A3027 RMK A01 T00211016  RH  076%=      5-min Rain = 0
KEA1 081942Z 35003KT 02/M02 A3027 RMK A01 T00201018  RH  076%=      5-min Rain = 0
KEA1 081943Z 01002KT 02/M02 A3027 RMK A01 T00181020  RH  076%=      5-min Rain = 0
KEA1 081944Z 03002KT 02/M02 A3027 RMK A01 T00181019  RH  076%=      5-min Rain = 0
KEA1 081945Z 01002KT 02/M01 A3027 RMK A01 T00191014  RH  078%=      5-min Rain = 0
KEA1 081946Z 01004KT 02/M01 A3026 RMK A01 T00211014  RH  078%=      5-min Rain = 0
KEA1 081947Z 01003KT 02/M02 A3026 RMK A01 T00211015  RH  077%=      5-min Rain = 0
KEA1 081948Z 01002KT 02/M01 A3026 RMK A01 T00211014  RH  077%=      5-min Rain = 0
KEA1 081949Z 00002KT 02/M02 A3026 RMK A01 T00211015  RH  077%=      5-min Rain = 0
KEA1 081950Z 00001KT 02/M01 A3026 RMK A01 T00211014  RH  077%=      5-min Rain = 0
KEA1 081951Z 35001KT 02/M02 A3026 RMK A01 T00211016  RH  076%=      5-min Rain = 0
KEA1 081952Z 35001KT 02/M02 A3026 RMK A01 T00221015  RH  077%=      5-min Rain = 0
KEA1 081953Z 35001KT 02/M02 A3026 RMK A01 T00221016  RH  076%=      5-min Rain = 0
KEA1 081954Z 35002KT 02/M02 A3026 RMK A01 T00231015  RH  076%=      5-min Rain = 0
KEA1 081955Z 01001KT 02/M02 A3026 RMK A01 T00231016  RH  075%=      5-min Rain = 0
KEA1 081956Z 02002KT 02/M02 A3026 RMK A01 T00231016  RH  076%=      5-min Rain = 0
KEA1 081957Z 01002KT 02/M01 A3026 RMK A01 T00241014  RH  076%=      5-min Rain = 0
KEA1 081958Z 00003KT 02/M01 A3026 RMK A01 T00241014  RH  076%=      5-min Rain = 0
KEA1 081959Z 36003KT 02/M02 A3026 RMK A01 T00241016  RH  075%=      5-min Rain = 0
KEA1 082000Z 03003KT 02/M02 A3026 RMK A01 T00221017  RH  075%=      5-min Rain = 0
KEA1 082001Z 02002KT 02/M02 A3026 RMK A01 T00221015  RH  077%=      5-min Rain = 0
KEA1 082002Z 02003KT 02/M01 A3025 RMK A01 T00231014  RH  077%=      5-min Rain = 0
KEA1 082003Z 02003KT 02/M01 A3025 RMK A01 T00231014  RH  077%=      5-min Rain = 0
KEA1 082004Z 02003KT 02/M02 A3025 RMK A01 T00231015  RH  076%=      5-min Rain = 0
KEA1 082005Z 06002KT 02/M02 A3025 RMK A01 T00231015  RH  076%=      5-min Rain = 0
KEA1 082006Z 06003KT 02/M02 A3025 RMK A01 T00231016  RH  075%=      5-min Rain = 0
KEA1 082007Z 05003KT 02/M01 A3025 RMK A01 T00231014  RH  077%=      5-min Rain = 0
KEA1 082008Z 05003KT 02/M01 A3025 RMK A01 T00221014  RH  077%=      5-min Rain = 0
KEA1 082009Z 06003KT 02/M01 A3025 RMK A01 T00221013  RH  078%=      5-min Rain = 0
KEA1 082010Z 07003KT 02/M02 A3025 RMK A01 T00211015  RH  077%=      5-min Rain = 0
KEA1 082011Z 07003KT 02/M02 A3025 RMK A01 T00201017  RH  077%=      5-min Rain = 0
KEA1 082012Z 07003KT 02/M02 A3025 RMK A01 T00191017  RH  077%=      5-min Rain = 0
KEA1 082013Z 07003KT 02/M02 A3025 RMK A01 T00191015  RH  078%=      5-min Rain = 0
KEA1 082014Z 03003KT 02/M01 A3025 RMK A01 T00201013  RH  079%=      5-min Rain = 0
KEA1 082015Z 04002KT 02/M02 A3025 RMK A01 T00211016  RH  077%=      5-min Rain = 0
KEA1 082016Z 04002KT 02/M02 A3024 RMK A01 T00211017  RH  076%=      5-min Rain = 0
KEA1 082017Z 07001KT 02/M01 A3024 RMK A01 T00211014  RH  078%=      5-min Rain = 0
KEA1 082018Z 06001KT 02/M02 A3024 RMK A01 T00211017  RH  076%=      5-min Rain = 0
KEA1 082019Z 08002KT 02/M02 A3024 RMK A01 T00221015  RH  077%=      5-min Rain = 0
KEA1 082020Z 07002KT 02/M01 A3024 RMK A01 T00231012  RH  077%=      5-min Rain = 0
KEA1 082021Z 06001KT 02/M01 A3024 RMK A01 T00241014  RH  076%=      5-min Rain = 0
KEA1 082022Z 07000KT 02/M02 A3024 RMK A01 T00241016  RH  075%=      5-min Rain = 0
KEA1 082023Z 00000KT 02/M02 A3024 RMK A01 T00231017  RH  075%=      5-min Rain = 0
KEA1 082024Z 05001KT 03/M02 A3024 RMK A01 T00251015  RH  075%=      5-min Rain = 0
KEA1 082025Z 05001KT 03/M01 A3025 RMK A01 T00281013  RH  075%=      5-min Rain = 0
KEA1 082026Z 29000KT 03/M01 A3024 RMK A01 T00281013  RH  074%=      5-min Rain = 0
KEA1 082027Z 36001KT 03/M01 A3024 RMK A01 T00291011  RH  075%=      5-min Rain = 0
KEA1 082028Z 02000KT 03/M01 A3024 RMK A01 T00291011  RH  075%=      5-min Rain = 0
KEA1 082029Z 01001KT 03/M01 A3024 RMK A01 T00311011  RH  074%=      5-min Rain = 0
KEA1 082030Z 03001KT 03/M01 A3024 RMK A01 T00301013  RH  073%=      5-min Rain = 0
KEA1 082031Z 04000KT 03/M02 A3024 RMK A01 T00291016  RH  072%=      5-min Rain = 0
KEA1 082032Z 04000KT 03/M02 A3024 RMK A01 T00281016  RH  073%=      5-min Rain = 0
KEA1 082033Z 02001KT 03/M02 A3024 RMK A01 T00281015  RH  073%=      5-min Rain = 0
KEA1 082034Z 35001KT 03/M02 A3024 RMK A01 T00291015  RH  073%=      5-min Rain = 0
KEA1 082035Z 29002KT 03/M01 A3024 RMK A01 T00291014  RH  074%=      5-min Rain = 0
KEA1 082036Z 34002KT 03/M01 A3024 RMK A01 T00281014  RH  074%=      5-min Rain = 0
KEA1 082037Z 33002KT 03/M01 A3024 RMK A01 T00281014  RH  074%=      5-min Rain = 0
KEA1 082038Z 34001KT 03/M01 A3024 RMK A01 T00281014  RH  074%=      5-min Rain = 0.01
KEA1 082039Z 00000KT 03/M02 A3024 RMK A01 T00281015  RH  073%=      5-min Rain = 0
KEA1 082040Z 25001KT 03/M02 A3024 RMK A01 T00291016  RH  073%=      5-min Rain = 0
KEA1 082041Z 17001KT 03/M01 A3024 RMK A01 T00291014  RH  074%=      5-min Rain = 0
KEA1 082042Z 09001KT 03/M01 A3024 RMK A01 T00291013  RH  074%=      5-min Rain = 0
KEA1 082043Z 17000KT 03/M01 A3024 RMK A01 T00281014  RH  074%=      5-min Rain = 0
KEA1 082044Z 21001KT 03/M01 A3024 RMK A01 T00281013  RH  074%=      5-min Rain = 0
KEA1 082045Z 17003KT 03/M01 A3024 RMK A01 T00281013  RH  074%=      5-min Rain = 0
KEA1 082046Z 16003KT 03/M01 A3024 RMK A01 T00271014  RH  074%=      5-min Rain = 0
KEA1 082047Z 15003KT 03/M02 A3024 RMK A01 T00251015  RH  075%=      5-min Rain = 0
KEA1 082048Z 14003KT 02/M01 A3024 RMK A01 T00241013  RH  076%=      5-min Rain = 0
KEA1 082049Z 14004KT 02/M02 A3024 RMK A01 T00231015  RH  076%=      5-min Rain = 0
KEA1 082050Z 13004KT 02/M01 A3024 RMK A01 T00221014  RH  077%=      5-min Rain = 0
KEA1 082051Z 12004KT 02/M01 A3024 RMK A01 T00211014  RH  077%=      5-min Rain = 0
KEA1 082052Z 12004KT 02/M01 A3024 RMK A01 T00211013  RH  078%=      5-min Rain = 0
KEA1 082053Z 11004KT 02/M01 A3024 RMK A01 T00211011  RH  079%=      5-min Rain = 0
KEA1 082054Z 12004KT 02/M01 A3024 RMK A01 T00221012  RH  078%=      5-min Rain = 0
KEA1 082055Z 13004KT 02/M01 A3024 RMK A01 T00211012  RH  079%=      5-min Rain = 0
KEA1 082056Z 14004KT 02/M01 A3024 RMK A01 T00211014  RH  077%=      5-min Rain = 0
KEA1 082057Z 13003KT 02/M01 A3024 RMK A01 T00211013  RH  078%=      5-min Rain = 0
KEA1 082058Z 13004KT 02/M01 A3024 RMK A01 T00221011  RH  079%=      5-min Rain = 0
KEA1 082059Z 12003KT 02/M01 A3024 RMK A01 T00221014  RH  077%=      5-min Rain = 0
KEA1 082100Z 12004KT 02/M01 A3024 RMK A01 T00221013  RH  078%=      5-min Rain = 0
KEA1 082101Z 13004KT 02/M01 A3024 RMK A01 T00211013  RH  078%=      5-min Rain = 0
KEA1 082102Z 14004KT 02/M01 A3024 RMK A01 T00201014  RH  078%=      5-min Rain = 0
KEA1 082103Z 12003KT 02/M01 A3024 RMK A01 T00201012  RH  079%=      5-min Rain = 0
KEA1 082104Z 13004KT 02/M01 A3024 RMK A01 T00201014  RH  078%=      5-min Rain = 0
KEA1 082105Z 13004KT 02/M02 A3024 RMK A01 T00201015  RH  078%=      5-min Rain = 0
KEA1 082106Z 13004KT 02/M02 A3024 RMK A01 T00191016  RH  078%=      5-min Rain = 0
KEA1 082107Z 14004KT 02/M02 A3024 RMK A01 T00191015  RH  078%=      5-min Rain = 0
KEA1 082108Z 14003KT 02/M02 A3024 RMK A01 T00181015  RH  078%=      5-min Rain = 0
KEA1 082109Z 13004KT 02/M01 A3024 RMK A01 T00181014  RH  079%=      5-min Rain = 0
KEA1 082110Z 13003KT 02/M02 A3024 RMK A01 T00181016  RH  078%=      5-min Rain = 0.01
KEA1 082111Z 12002KT 02/M02 A3024 RMK A01 T00181015  RH  079%=      5-min Rain = 0
KEA1 082112Z 13002KT 02/M02 A3024 RMK A01 T00181016  RH  078%=      5-min Rain = 0
KEA1 082113Z 13002KT 02/M02 A3024 RMK A01 T00181015  RH  078%=      5-min Rain = 0
KEA1 082114Z 13002KT 02/M01 A3024 RMK A01 T00191013  RH  079%=      5-min Rain = 0
KEA1 082115Z 13002KT 02/M01 A3024 RMK A01 T00191013  RH  079%=      5-min Rain = 0
KEA1 082116Z 14002KT 02/M01 A3024 RMK A01 T00201014  RH  079%=      5-min Rain = 0
KEA1 082117Z 16002KT 02/M01 A3024 RMK A01 T00201013  RH  078%=      5-min Rain = 0
KEA1 082118Z 12002KT 02/M01 A3024 RMK A01 T00201013  RH  078%=      5-min Rain = 0
KEA1 082119Z 11001KT 02/M01 A3024 RMK A01 T00211013  RH  078%=      5-min Rain = 0
KEA1 082120Z 09001KT 02/M01 A3024 RMK A01 T00211012  RH  078%=      5-min Rain = 0
KEA1 082121Z 10002KT 02/M01 A3024 RMK A01 T00221013  RH  078%=      5-min Rain = 0
KEA1 082122Z 09002KT 02/M01 A3024 RMK A01 T00221011  RH  079%=      5-min Rain = 0
KEA1 082123Z 09002KT 02/M01 A3024 RMK A01 T00221011  RH  078%=      5-min Rain = 0
KEA1 082124Z 09002KT 02/M01 A3024 RMK A01 T00221013  RH  078%=      5-min Rain = 0
KEA1 082125Z 10002KT 02/M01 A3024 RMK A01 T00211013  RH  078%=      5-min Rain = 0.01
KEA1 082126Z 09002KT 02/M01 A3024 RMK A01 T00211011  RH  079%=      5-min Rain = 0
KEA1 082127Z 10003KT 02/M01 A3023 RMK A01 T00211013  RH  078%=      5-min Rain = 0.01
KEA1 082128Z 11003KT 02/M01 A3023 RMK A01 T00211013  RH  079%=      5-min Rain = 0
KEA1 082129Z 11003KT 02/M01 A3023 RMK A01 T00211011  RH  079%=      5-min Rain = 0
KEA1 082130Z 10002KT 02/M01 A3023 RMK A01 T00211012  RH  079%=      5-min Rain = 0
KEA1 082131Z 11002KT 02/M01 A3023 RMK A01 T00211012  RH  079%=      5-min Rain = 0.01
KEA1 082132Z 10002KT 02/M01 A3023 RMK A01 T00211010  RH  080%=      5-min Rain = 0
KEA1 082133Z 10002KT 02/M01 A3023 RMK A01 T00211011  RH  079%=      5-min Rain = 0
KEA1 082134Z 10002KT 02/M01 A3023 RMK A01 T00221011  RH  079%=      5-min Rain = 0
KEA1 082135Z 11002KT 02/M01 A3023 RMK A01 T00221011  RH  079%=      5-min Rain = 0.01
KEA1 082136Z 11002KT 02/M01 A3023 RMK A01 T00221011  RH  079%=      5-min Rain = 0
KEA1 082137Z 10002KT 02/M01 A3023 RMK A01 T00221012  RH  078%=      5-min Rain = 0.01
KEA1 082138Z 10003KT 02/M01 A3023 RMK A01 T00211011  RH  079%=      5-min Rain = 0
KEA1 082139Z 10003KT 02/M01 A3023 RMK A01 T00211012  RH  079%=      5-min Rain = 0
KEA1 082140Z 11003KT 02/M01 A3023 RMK A01 T00221011  RH  079%=      5-min Rain = 0.01
KEA1 082141Z 12003KT 02/M01 A3023 RMK A01 T00211012  RH  079%=      5-min Rain = 0
KEA1 082142Z 12003KT 02/M01 A3023 RMK A01 T00211012  RH  078%=      5-min Rain = 0
KEA1 082143Z 11003KT 02/M01 A3023 RMK A01 T00211012  RH  079%=      5-min Rain = 0.01
KEA1 082144Z 12003KT 02/M01 A3023 RMK A01 T00211011  RH  079%=      5-min Rain = 0
KEA1 082145Z 12002KT 02/M01 A3023 RMK A01 T00211011  RH  080%=      5-min Rain = 0
KEA1 082146Z 13001KT 02/M01 A3023 RMK A01 T00211013  RH  078%=      5-min Rain = 0
KEA1 082147Z 10002KT 02/M02 A3023 RMK A01 T00211016  RH  076%=      5-min Rain = 0.01
KEA1 082148Z 11002KT 02/M01 A3023 RMK A01 T00221014  RH  078%=      5-min Rain = 0
KEA1 082149Z 11001KT 02/M01 A3023 RMK A01 T00221011  RH  079%=      5-min Rain = 0
KEA1 082150Z 11001KT 02/M01 A3023 RMK A01 T00221012  RH  078%=      5-min Rain = 0
KEA1 082151Z 13002KT 02/M01 A3023 RMK A01 T00221013  RH  077%=      5-min Rain = 0
KEA1 082152Z 14003KT 02/M01 A3023 RMK A01 T00221013  RH  078%=      5-min Rain = 0
KEA1 082153Z 14002KT 02/M01 A3023 RMK A01 T00221012  RH  078%=      5-min Rain = 0
KEA1 082154Z 13001KT 02/M01 A3023 RMK A01 T00221011  RH  078%=      5-min Rain = 0.01
KEA1 082155Z 14001KT 02/M01 A3023 RMK A01 T00231012  RH  078%=      5-min Rain = 0
KEA1 082156Z 13001KT 02/M02 A3023 RMK A01 T00231015  RH  076%=      5-min Rain = 0
KEA1 082157Z 13001KT 02/M01 A3023 RMK A01 T00231014  RH  077%=      5-min Rain = 0
KEA1 082158Z 14002KT 02/M01 A3023 RMK A01 T00241012  RH  077%=      5-min Rain = 0
KEA1 082159Z 13002KT 03/M01 A3023 RMK A01 T00251011  RH  077%=      5-min Rain = 0
KEA1 082200Z 12002KT 03/M01 A3023 RMK A01 T00251011  RH  077%=      5-min Rain = 0
KEA1 082201Z 10001KT 03/M01 A3023 RMK A01 T00251012  RH  077%=      5-min Rain = 0.01
KEA1 082202Z 17001KT 03/M01 A3023 RMK A01 T00251011  RH  077%=      5-min Rain = 0
KEA1 082203Z 16001KT 03/M01 A3023 RMK A01 T00251012  RH  076%=      5-min Rain = 0
KEA1 082204Z 15002KT 03/M01 A3023 RMK A01 T00261013  RH  075%=      5-min Rain = 0
KEA1 082205Z 14002KT 03/M02 A3023 RMK A01 T00261015  RH  075%=      5-min Rain = 0
KEA1 082206Z 14002KT 03/M01 A3023 RMK A01 T00261014  RH  075%=      5-min Rain = 0
KEA1 082207Z 14002KT 03/M01 A3023 RMK A01 T00261011  RH  076%=      5-min Rain = 0.01
KEA1 082208Z 13001KT 03/M01 A3023 RMK A01 T00271011  RH  076%=      5-min Rain = 0
KEA1 082209Z 13002KT 03/M01 A3023 RMK A01 T00281012  RH  075%=      5-min Rain = 0
KEA1 082210Z 12003KT 03/M01 A3023 RMK A01 T00291012  RH  075%=      5-min Rain = 0
KEA1 082211Z 14002KT 03/M01 A3023 RMK A01 T00301012  RH  074%=      5-min Rain = 0
KEA1 082212Z 13001KT 03/M01 A3023 RMK A01 T00301013  RH  073%=      5-min Rain = 0.01
KEA1 082213Z 13002KT 03/M01 A3023 RMK A01 T00311013  RH  073%=      5-min Rain = 0
KEA1 082214Z 14002KT 03/M01 A3023 RMK A01 T00331012  RH  073%=      5-min Rain = 0
KEA1 082215Z 13002KT 03/M01 A3023 RMK A01 T00341014  RH  071%=      5-min Rain = 0
KEA1 082216Z 14002KT 03/M02 A3023 RMK A01 T00341015  RH  070%=      5-min Rain = 0
KEA1 082217Z 12001KT 03/M01 A3023 RMK A01 T00341012  RH  071%=      5-min Rain = 0
KEA1 082218Z 12001KT 03/M01 A3023 RMK A01 T00341012  RH  072%=      5-min Rain = 0
KEA1 082219Z 11001KT 03/M01 A3023 RMK A01 T00341010  RH  073%=      5-min Rain = 0.01
KEA1 082220Z 00000KT 03/M01 A3023 RMK A01 T00341011  RH  072%=      5-min Rain = 0
KEA1 082221Z 12000KT 03/M01 A3023 RMK A01 T00341012  RH  072%=      5-min Rain = 0
KEA1 082222Z 00000KT 03/M01 A3023 RMK A01 T00341013  RH  071%=      5-min Rain = 0
KEA1 082223Z 00000KT 03/M01 A3023 RMK A01 T00331012  RH  072%=      5-min Rain = 0
KEA1 082224Z 00000KT 03/M01 A3023 RMK A01 T00331012  RH  072%=      5-min Rain = 0
KEA1 082225Z 02000KT 03/M01 A3023 RMK A01 T00331012  RH  072%=      5-min Rain = 0
KEA1 082226Z 02000KT 03/M01 A3023 RMK A01 T00331011  RH  072%=      5-min Rain = 0
KEA1 082227Z 00000KT 03/M01 A3023 RMK A01 T00331012  RH  072%=      5-min Rain = 0
KEA1 082228Z 00000KT 03/M01 A3023 RMK A01 T00331013  RH  072%=      5-min Rain = 0
KEA1 082229Z 00000KT 03/M01 A3023 RMK A01 T00321012  RH  073%=      5-min Rain = 0
KEA1 082230Z 14000KT 03/M01 A3023 RMK A01 T00311012  RH  073%=      5-min Rain = 0
KEA1 082231Z 13002KT 03/M01 A3023 RMK A01 T00301013  RH  073%=      5-min Rain = 0
KEA1 082232Z 13001KT 03/M02 A3023 RMK A01 T00301015  RH  072%=      5-min Rain = 0
KEA1 082233Z 14002KT 03/M02 A3023 RMK A01 T00301015  RH  073%=      5-min Rain = 0.01
KEA1 082234Z 15002KT 03/M02 A3023 RMK A01 T00301015  RH  073%=      5-min Rain = 0
KEA1 082235Z 18001KT 03/M02 A3023 RMK A01 T00291015  RH  073%=      5-min Rain = 0
KEA1 082236Z 16001KT 03/M02 A3023 RMK A01 T00291015  RH  073%=      5-min Rain = 0
KEA1 082237Z 20000KT 03/M01 A3023 RMK A01 T00291014  RH  073%=      5-min Rain = 0
KEA1 082238Z 26000KT 03/M01 A3023 RMK A01 T00291014  RH  073%=      5-min Rain = 0
KEA1 082239Z 30001KT 03/M01 A3023 RMK A01 T00291014  RH  073%=      5-min Rain = 0
KEA1 082240Z 35001KT 03/M02 A3023 RMK A01 T00291015  RH  073%=      5-min Rain = 0
KEA1 082241Z 02001KT 03/M02 A3023 RMK A01 T00291017  RH  072%=      5-min Rain = 0
KEA1 082242Z 02000KT 03/M02 A3023 RMK A01 T00291017  RH  072%=      5-min Rain = 0
KEA1 082243Z 02000KT 03/M02 A3023 RMK A01 T00291017  RH  072%=      5-min Rain = 0
KEA1 082244Z 00000KT 03/M02 A3022 RMK A01 T00291016  RH  072%=      5-min Rain = 0
KEA1 082245Z 00000KT 03/M02 A3022 RMK A01 T00291016  RH  072%=      5-min Rain = 0
KEA1 082246Z 00000KT 03/M02 A3022 RMK A01 T00291017  RH  072%=      5-min Rain = 0
KEA1 082247Z 00000KT 03/M02 A3022 RMK A01 T00291017  RH  072%=      5-min Rain = 0
KEA1 082248Z 00000KT 03/M02 A3022 RMK A01 T00291016  RH  072%=      5-min Rain = 0
KEA1 082249Z 00000KT 03/M02 A3022 RMK A01 T00291015  RH  073%=      5-min Rain = 0
KEA1 082250Z 04000KT 03/M02 A3022 RMK A01 T00291015  RH  073%=      5-min Rain = 0
KEA1 082251Z 13000KT 03/M02 A3022 RMK A01 T00291016  RH  072%=      5-min Rain = 0
KEA1 082252Z 13003KT 03/M02 A3022 RMK A01 T00281016  RH  073%=      5-min Rain = 0.01
KEA1 082253Z 12002KT 03/M02 A3022 RMK A01 T00281015  RH  073%=      5-min Rain = 0
KEA1 082254Z 12002KT 03/M02 A3022 RMK A01 T00271016  RH  073%=      5-min Rain = 0
KEA1 082255Z 12002KT 03/M02 A3022 RMK A01 T00271016  RH  073%=      5-min Rain = 0
KEA1 082256Z 12002KT 03/M02 A3022 RMK A01 T00261016  RH  073%=      5-min Rain = 0
KEA1 082257Z 12003KT 03/M02 A3022 RMK A01 T00261016  RH  074%=      5-min Rain = 0
KEA1 082258Z 11002KT 03/M02 A3022 RMK A01 T00261016  RH  074%=      5-min Rain = 0
KEA1 082259Z 12003KT 03/M02 A3023 RMK A01 T00251017  RH  074%=      5-min Rain = 0
KEA1 082300Z 13003KT 03/M02 A3023 RMK A01 T00251017  RH  074%=      5-min Rain = 0
KEA1 082301Z 14002KT 03/M02 A3023 RMK A01 T00251018  RH  073%=      5-min Rain = 0
KEA1 082302Z 14001KT 03/M02 A3023 RMK A01 T00261018  RH  073%=      5-min Rain = 0
KEA1 082303Z 14001KT 03/M02 A3023 RMK A01 T00261018  RH  073%=      5-min Rain = 0
KEA1 082304Z 16001KT 03/M02 A3023 RMK A01 T00271017  RH  073%=      5-min Rain = 0
KEA1 082305Z 14001KT 03/M02 A3023 RMK A01 T00271018  RH  072%=      5-min Rain = 0
KEA1 082306Z 14001KT 03/M02 A3023 RMK A01 T00271017  RH  073%=      5-min Rain = 0
KEA1 082307Z 09000KT 03/M02 A3023 RMK A01 T00271017  RH  073%=      5-min Rain = 0
KEA1 082308Z 07001KT 03/M02 A3023 RMK A01 T00271016  RH  073%=      5-min Rain = 0
KEA1 082309Z 07002KT 03/M02 A3023 RMK A01 T00271015  RH  074%=      5-min Rain = 0
KEA1 082310Z 07002KT 03/M02 A3023 RMK A01 T00261015  RH  074%=      5-min Rain = 0
KEA1 082311Z 11001KT 03/M02 A3023 RMK A01 T00251015  RH  075%=      5-min Rain = 0
KEA1 082312Z 09001KT 02/M02 A3023 RMK A01 T00241016  RH  075%=      5-min Rain = 0
KEA1 082313Z 09003KT 02/M02 A3023 RMK A01 T00221015  RH  077%=      5-min Rain = 0
KEA1 082314Z 09003KT 02/M01 A3023 RMK A01 T00201014  RH  078%=      5-min Rain = 0
KEA1 082315Z 10005KT 02/M01 A3023 RMK A01 T00171013  RH  080%=      5-min Rain = 0
KEA1 082316Z 11005KT 02/M01 A3023 RMK A01 T00151013  RH  081%=      5-min Rain = 0
KEA1 082317Z 11005KT 01/M01 A3023 RMK A01 T00141013  RH  082%=      5-min Rain = 0
KEA1 082318Z 11006KT 01/M01 A3023 RMK A01 T00131013  RH  083%=      5-min Rain = 0
KEA1 082319Z 12006KT 01/M01 A3023 RMK A01 T00121013  RH  083%=      5-min Rain = 0
KEA1 082320Z 12005KT 01/M01 A3023 RMK A01 T00121013  RH  084%=      5-min Rain = 0
KEA1 082321Z 11005KT 01/M01 A3023 RMK A01 T00111013  RH  084%=      5-min Rain = 0
KEA1 082322Z 12005KT 01/M01 A3023 RMK A01 T00111013  RH  084%=      5-min Rain = 0
KEA1 082323Z 12006KT 01/M01 A3023 RMK A01 T00101014  RH  084%=      5-min Rain = 0
KEA1 082324Z 12006KT 01/M01 A3023 RMK A01 T00091014  RH  084%=      5-min Rain = 0
KEA1 082325Z 12006KT 01/M02 A3023 RMK A01 T00081015  RH  084%=      5-min Rain = 0
KEA1 082326Z 12006KT 01/M02 A3023 RMK A01 T00081016  RH  084%=      5-min Rain = 0
KEA1 082327Z 12007KT 01/M02 A3023 RMK A01 T00071016  RH  084%=      5-min Rain = 0
KEA1 082328Z 12007KT 01/M02 A3023 RMK A01 T00071016  RH  084%=      5-min Rain = 0
KEA1 082329Z 12007KT 01/M02 A3023 RMK A01 T00061017  RH  085%=      5-min Rain = 0
KEA1 082330Z 12007KT 01/M02 A3023 RMK A01 T00061017  RH  085%=      5-min Rain = 0
KEA1 082331Z 13007KT 01/M02 A3023 RMK A01 T00061017  RH  085%=      5-min Rain = 0
KEA1 082332Z 12007KT 01/M02 A3023 RMK A01 T00051018  RH  085%=      5-min Rain = 0
KEA1 082333Z 12006KT 01/M02 A3023 RMK A01 T00051018  RH  085%=      5-min Rain = 0
KEA1 082334Z 12006KT 00/M02 A3023 RMK A01 T00041018  RH  085%=      5-min Rain = 0
KEA1 082335Z 12006KT 00/M02 A3023 RMK A01 T00041018  RH  085%=      5-min Rain = 0
KEA1 082336Z 12006KT 00/M02 A3023 RMK A01 T00031018  RH  086%=      5-min Rain = 0
KEA1 082337Z 12006KT 00/M02 A3023 RMK A01 T00021018  RH  086%=      5-min Rain = 0
KEA1 082338Z 12006KT 00/M02 A3023 RMK A01 T00011019  RH  086%=      5-min Rain = 0
KEA1 082339Z 12006KT 00/M02 A3023 RMK A01 T00011019  RH  087%=      5-min Rain = 0
KEA1 082340Z 13006KT 00/02 A3023 RMK A01 T00000-20  RH  087%=      5-min Rain = 0
KEA1 082341Z 13006KT 00/02 A3023 RMK A01 T00-00-20  RH  087%=      5-min Rain = 0
KEA1 082342Z 13007KT M00/M02 A3023 RMK A01 T10011020  RH  087%=      5-min Rain = 0
KEA1 082343Z 13006KT M00/M02 A3023 RMK A01 T10011021  RH  087%=      5-min Rain = 0
KEA1 082344Z 13007KT M00/M02 A3023 RMK A01 T10021021  RH  087%=      5-min Rain = 0
KEA1 082345Z 14006KT M00/M02 A3023 RMK A01 T10021021  RH  087%=      5-min Rain = 0
KEA1 082346Z 14006KT M00/M02 A3023 RMK A01 T10021021  RH  087%=      5-min Rain = 0
KEA1 082347Z 13006KT M00/M02 A3023 RMK A01 T10021021  RH  087%=      5-min Rain = 0
KEA1 082348Z 13006KT M00/M02 A3023 RMK A01 T10021021  RH  087%=      5-min Rain = 0
KEA1 082349Z 13006KT M00/M02 A3023 RMK A01 T10021022  RH  087%=      5-min Rain = 0
KEA1 082350Z 13006KT M00/M02 A3024 RMK A01 T10031022  RH  087%=      5-min Rain = 0
KEA1 082351Z 13005KT M00/M02 A3024 RMK A01 T10031022  RH  087%=      5-min Rain = 0
KEA1 082352Z 13005KT M00/M02 A3024 RMK A01 T10031023  RH  087%=      5-min Rain = 0
KEA1 082353Z 13005KT M00/M02 A3024 RMK A01 T10041023  RH  087%=      5-min Rain = 0
KEA1 082354Z 13005KT M00/M02 A3024 RMK A01 T10041023  RH  087%=      5-min Rain = 0
KEA1 082355Z 14005KT M01/M02 A3024 RMK A01 T10051023  RH  087%=      5-min Rain = 0
KEA1 082356Z 14005KT M01/M02 A3024 RMK A01 T10051023  RH  088%=      5-min Rain = 0
KEA1 082357Z 14006KT M01/M02 A3024 RMK A01 T10061024  RH  088%=      5-min Rain = 0
KEA1 082358Z 13006KT M01/M02 A3024 RMK A01 T10071024  RH  088%=      5-min Rain = 0
KEA1 082359Z 13006KT M01/M02 A3024 RMK A01 T10071024  RH  088%=      5-min Rain = 0
KEA1 090000Z 13006KT M01/M02 A3024 RMK A01 T10071024  RH  089%=      5-min Rain = 0
KEA1 090001Z 13006KT M01/M02 A3024 RMK A01 T10081024  RH  089%=      5-min Rain = 0
KEA1 090002Z 13007KT M01/M02 A3024 RMK A01 T10071024  RH  089%=      5-min Rain = 0
KEA1 090003Z 13006KT M01/M02 A3024 RMK A01 T10071024  RH  089%=      5-min Rain = 0
KEA1 090004Z 14006KT M01/M02 A3024 RMK A01 T10071024  RH  089%=      5-min Rain = 0
KEA1 090005Z 14005KT M01/M02 A3024 RMK A01 T10081024  RH  089%=      5-min Rain = 0
KEA1 090006Z 14005KT M01/M03 A3024 RMK A01 T10091025  RH  089%=      5-min Rain = 0
KEA1 090007Z 13006KT M01/M03 A3024 RMK A01 T10101026  RH  089%=      5-min Rain = 0
KEA1 090008Z 13007KT M01/M03 A3024 RMK A01 T10101025  RH  089%=      5-min Rain = 0
KEA1 090009Z 13007KT M01/M03 A3024 RMK A01 T10101025  RH  089%=      5-min Rain = 0
KEA1 090010Z 13006KT M01/M03 A3024 RMK A01 T10091025  RH  089%=      5-min Rain = 0
KEA1 090011Z 13006KT M01/M02 A3024 RMK A01 T10091024  RH  089%=      5-min Rain = 0
KEA1 090012Z 13006KT M01/M03 A3024 RMK A01 T10091025  RH  089%=      5-min Rain = 0
KEA1 090013Z 13006KT M01/M03 A3024 RMK A01 T10091025  RH  089%=      5-min Rain = 0
KEA1 090014Z 13006KT M01/M03 A3024 RMK A01 T10101026  RH  089%=      5-min Rain = 0
KEA1 090015Z 13006KT M01/M03 A3024 RMK A01 T10111027  RH  089%=      5-min Rain = 0
KEA1 090016Z 13005KT M01/M03 A3024 RMK A01 T10111027  RH  089%=      5-min Rain = 0
KEA1 090017Z 13006KT M01/M03 A3024 RMK A01 T10111027  RH  089%=      5-min Rain = 0
KEA1 090018Z 13006KT M01/M03 A3024 RMK A01 T10121027  RH  090%=      5-min Rain = 0
KEA1 090019Z 13006KT M01/M03 A3024 RMK A01 T10121027  RH  090%=      5-min Rain = 0
KEA1 090020Z 13006KT M01/M03 A3024 RMK A01 T10121027  RH  090%=      5-min Rain = 0
KEA1 090021Z 14006KT M01/M03 A3025 RMK A01 T10131027  RH  090%=      5-min Rain = 0
KEA1 090022Z 14007KT M01/M03 A3025 RMK A01 T10141028  RH  090%=      5-min Rain = 0
KEA1 090023Z 14007KT M02/M03 A3025 RMK A01 T10151030  RH  090%=      5-min Rain = 0
KEA1 090024Z 14007KT M02/M03 A3025 RMK A01 T10161030  RH  090%=      5-min Rain = 0
KEA1 090025Z 14007KT M02/M03 A3025 RMK A01 T10171030  RH  091%=      5-min Rain = 0
KEA1 090026Z 14007KT M02/M03 A3025 RMK A01 T10171030  RH  091%=      5-min Rain = 0
KEA1 090027Z 14007KT M02/M03 A3025 RMK A01 T10171029  RH  091%=      5-min Rain = 0
KEA1 090028Z 14007KT M02/M03 A3025 RMK A01 T10171029  RH  092%=      5-min Rain = 0
KEA1 090029Z 13007KT M02/M03 A3025 RMK A01 T10171029  RH  092%=      5-min Rain = 0
KEA1 090030Z 13007KT M02/M03 A3025 RMK A01 T10171028  RH  092%=      5-min Rain = 0
KEA1 090031Z 13006KT M02/M03 A3025 RMK A01 T10161028  RH  092%=      5-min Rain = 0
KEA1 090032Z 13006KT M02/M03 A3025 RMK A01 T10161028  RH  092%=      5-min Rain = 0
KEA1 090033Z 13006KT M02/M03 A3025 RMK A01 T10161028  RH  091%=      5-min Rain = 0
KEA1 090034Z 13007KT M02/M03 A3025 RMK A01 T10151027  RH  091%=      5-min Rain = 0
KEA1 090035Z 13007KT M02/M03 A3025 RMK A01 T10151028  RH  091%=      5-min Rain = 0
KEA1 090036Z 13006KT M02/M03 A3025 RMK A01 T10151028  RH  091%=      5-min Rain = 0
KEA1 090037Z 14006KT M02/M03 A3025 RMK A01 T10161030  RH  090%=      5-min Rain = 0
KEA1 090038Z 14006KT M02/M03 A3025 RMK A01 T10171032  RH  090%=      5-min Rain = 0
KEA1 090039Z 14006KT M02/M03 A3025 RMK A01 T10191033  RH  090%=      5-min Rain = 0
KEA1 090040Z 14006KT M02/M03 A3025 RMK A01 T10201033  RH  090%=      5-min Rain = 0
KEA1 090041Z 14007KT M02/M03 A3025 RMK A01 T10201032  RH  091%=      5-min Rain = 0
KEA1 090042Z 14007KT M02/M03 A3025 RMK A01 T10201032  RH  091%=      5-min Rain = 0
KEA1 090043Z 14007KT M02/M03 A3025 RMK A01 T10201032  RH  092%=      5-min Rain = 0
KEA1 090044Z 14007KT M02/M03 A3025 RMK A01 T10191031  RH  092%=      5-min Rain = 0
KEA1 090045Z 14007KT M02/M03 A3025 RMK A01 T10191031  RH  092%=      5-min Rain = 0
KEA1 090046Z 14007KT M02/M03 A3025 RMK A01 T10191030  RH  092%=      5-min Rain = 0
KEA1 090047Z 14007KT M02/M03 A3025 RMK A01 T10181031  RH  091%=      5-min Rain = 0
KEA1 090048Z 13007KT M02/M03 A3025 RMK A01 T10181031  RH  091%=      5-min Rain = 0
KEA1 090049Z 14007KT M02/M03 A3025 RMK A01 T10181031  RH  091%=      5-min Rain = 0
KEA1 090050Z 13007KT M02/M03 A3025 RMK A01 T10181031  RH  091%=      5-min Rain = 0
KEA1 090051Z 13007KT M02/M03 A3025 RMK A01 T10181031  RH  091%=      5-min Rain = 0
KEA1 090052Z 14007KT M02/M03 A3025 RMK A01 T10181031  RH  091%=      5-min Rain = 0
KEA1 090053Z 14007KT M02/M03 A3025 RMK A01 T10181031  RH  091%=      5-min Rain = 0
KEA1 090054Z 14007KT M02/M03 A3025 RMK A01 T10181031  RH  091%=      5-min Rain = 0
KEA1 090055Z 14007KT M02/M03 A3025 RMK A01 T10191032  RH  091%=      5-min Rain = 0
KEA1 090056Z 14006KT M02/M03 A3025 RMK A01 T10191033  RH  091%=      5-min Rain = 0
KEA1 090057Z 14006KT M02/M03 A3025 RMK A01 T10201033  RH  091%=      5-min Rain = 0
KEA1 090058Z 14006KT M02/M03 A3025 RMK A01 T10201033  RH  091%=      5-min Rain = 0
KEA1 090059Z 14006KT M02/M03 A3025 RMK A01 T10211034  RH  091%=      5-min Rain = 0
KEA1 090100Z 14006KT M02/M03 A3025 RMK A01 T10211034  RH  091%=      5-min Rain = 0
KEA1 090101Z 14006KT M02/M03 A3025 RMK A01 T10211034  RH  091%=      5-min Rain = 0
KEA1 090102Z 14006KT M02/M03 A3025 RMK A01 T10221034  RH  091%=      5-min Rain = 0
KEA1 090103Z 14006KT M02/M03 A3025 RMK A01 T10221034  RH  091%=      5-min Rain = 0
KEA1 090104Z 15006KT M02/M04 A3025 RMK A01 T10221035  RH  091%=      5-min Rain = 0
KEA1 090105Z 14006KT M02/M04 A3025 RMK A01 T10231035  RH  091%=      5-min Rain = 0
KEA1 090106Z 14006KT M02/M04 A3025 RMK A01 T10231035  RH  091%=      5-min Rain = 0
KEA1 090107Z 14006KT M02/M04 A3025 RMK A01 T10231035  RH  092%=      5-min Rain = 0
KEA1 090108Z 14005KT M02/M04 A3025 RMK A01 T10231035  RH  092%=      5-min Rain = 0
KEA1 090109Z 14005KT M02/M04 A3025 RMK A01 T10241035  RH  092%=      5-min Rain = 0
KEA1 090110Z 14005KT M02/M04 A3025 RMK A01 T10231035  RH  092%=      5-min Rain = 0
KEA1 090111Z 14006KT M02/M04 A3025 RMK A01 T10241035  RH  092%=      5-min Rain = 0
KEA1 090112Z 14006KT M02/M03 A3025 RMK A01 T10231034  RH  092%=      5-min Rain = 0
KEA1 090113Z 14006KT M02/M03 A3025 RMK A01 T10231034  RH  092%=      5-min Rain = 0
KEA1 090114Z 14006KT M02/M04 A3025 RMK A01 T10241035  RH  092%=      5-min Rain = 0
KEA1 090115Z 13006KT M02/M03 A3025 RMK A01 T10231034  RH  092%=      5-min Rain = 0
KEA1 090116Z 13006KT M02/M03 A3025 RMK A01 T10231034  RH  092%=      5-min Rain = 0
KEA1 090117Z 13006KT M02/M03 A3025 RMK A01 T10231034  RH  092%=      5-min Rain = 0
KEA1 090118Z 13006KT M02/M04 A3025 RMK A01 T10231035  RH  092%=      5-min Rain = 0
KEA1 090119Z 13006KT M02/M04 A3025 RMK A01 T10231035  RH  091%=      5-min Rain = 0
KEA1 090120Z 13006KT M02/M04 A3025 RMK A01 T10241036  RH  091%=      5-min Rain = 0
KEA1 090121Z 13006KT M02/M04 A3025 RMK A01 T10241037  RH  091%=      5-min Rain = 0
KEA1 090122Z 13006KT M03/M04 A3025 RMK A01 T10251037  RH  091%=      5-min Rain = 0
KEA1 090123Z 13006KT M03/M04 A3025 RMK A01 T10251037  RH  092%=      5-min Rain = 0
KEA1 090124Z 13006KT M03/M04 A3025 RMK A01 T10251037  RH  092%=      5-min Rain = 0
KEA1 090125Z 13006KT M03/M04 A3025 RMK A01 T10261038  RH  092%=      5-min Rain = 0
KEA1 090126Z 13006KT M03/M04 A3025 RMK A01 T10261038  RH  092%=      5-min Rain = 0
KEA1 090127Z 13006KT M03/M04 A3025 RMK A01 T10261037  RH  092%=      5-min Rain = 0
KEA1 090128Z 13006KT M03/M04 A3025 RMK A01 T10261037  RH  092%=      5-min Rain = 0
KEA1 090129Z 13006KT M03/M04 A3025 RMK A01 T10261037  RH  092%=      5-min Rain = 0
KEA1 090130Z 13006KT M03/M04 A3025 RMK A01 T10261037  RH  092%=      5-min Rain = 0
KEA1 090131Z 13006KT M03/M04 A3025 RMK A01 T10251036  RH  092%=      5-min Rain = 0
KEA1 090132Z 14006KT M03/M04 A3026 RMK A01 T10251037  RH  092%=      5-min Rain = 0
KEA1 090133Z 14006KT M03/M04 A3026 RMK A01 T10251037  RH  092%=      5-min Rain = 0
KEA1 090134Z 14006KT M03/M04 A3026 RMK A01 T10271039  RH  091%=      5-min Rain = 0
KEA1 090135Z 14006KT M03/M04 A3026 RMK A01 T10281040  RH  091%=      5-min Rain = 0
KEA1 090136Z 14006KT M03/M04 A3026 RMK A01 T10291041  RH  091%=      5-min Rain = 0
KEA1 090137Z 14006KT M03/M04 A3026 RMK A01 T10291041  RH  091%=      5-min Rain = 0
KEA1 090138Z 14006KT M03/M04 A3026 RMK A01 T10301041  RH  092%=      5-min Rain = 0
KEA1 090139Z 14006KT M03/M04 A3026 RMK A01 T10301041  RH  092%=      5-min Rain = 0
KEA1 090140Z 13006KT M03/M04 A3026 RMK A01 T10301041  RH  092%=      5-min Rain = 0
KEA1 090141Z 13006KT M03/M04 A3026 RMK A01 T10301040  RH  093%=      5-min Rain = 0
KEA1 090142Z 13006KT M03/M04 A3026 RMK A01 T10301040  RH  093%=      5-min Rain = 0
KEA1 090143Z 13006KT M03/M04 A3026 RMK A01 T10291039  RH  093%=      5-min Rain = 0
KEA1 090144Z 13006KT M03/M04 A3026 RMK A01 T10281038  RH  093%=      5-min Rain = 0
KEA1 090145Z 13006KT M03/M04 A3026 RMK A01 T10271037  RH  093%=      5-min Rain = 0
KEA1 090146Z 14006KT M03/M04 A3026 RMK A01 T10261036  RH  093%=      5-min Rain = 0
KEA1 090147Z 14006KT M03/M04 A3026 RMK A01 T10261036  RH  093%=      5-min Rain = 0
KEA1 090148Z 13006KT M03/M04 A3026 RMK A01 T10261036  RH  092%=      5-min Rain = 0
KEA1 090149Z 13006KT M03/M04 A3026 RMK A01 T10251037  RH  092%=      5-min Rain = 0
KEA1 090150Z 14006KT M03/M04 A3026 RMK A01 T10261038  RH  092%=      5-min Rain = 0
KEA1 090151Z 14006KT M03/M04 A3026 RMK A01 T10271039  RH  092%=      5-min Rain = 0
KEA1 090152Z 14006KT M03/M04 A3026 RMK A01 T10281040  RH  091%=      5-min Rain = 0
KEA1 090153Z 14006KT M03/M04 A3026 RMK A01 T10291041  RH  091%=      5-min Rain = 0
KEA1 090154Z 14006KT M03/M04 A3026 RMK A01 T10291041  RH  092%=      5-min Rain = 0
KEA1 090155Z 14006KT M03/M04 A3026 RMK A01 T10301041  RH  092%=      5-min Rain = 0
KEA1 090156Z 14006KT M03/M04 A3026 RMK A01 T10301041  RH  092%=      5-min Rain = 0
KEA1 090157Z 14006KT M03/M04 A3026 RMK A01 T10301041  RH  092%=      5-min Rain = 0
KEA1 090158Z 14006KT M03/M04 A3026 RMK A01 T10301041  RH  093%=      5-min Rain = 0
KEA1 090159Z 14006KT M03/M04 A3026 RMK A01 T10301040  RH  093%=      5-min Rain = 0
KEA1 090200Z 14006KT M03/M04 A3026 RMK A01 T10301041  RH  092%=      5-min Rain = 0
KEA1 090201Z 14006KT M03/M04 A3026 RMK A01 T10311042  RH  092%=      5-min Rain = 0
KEA1 090202Z 14006KT M03/M04 A3026 RMK A01 T10321043  RH  092%=      5-min Rain = 0
KEA1 090203Z 15006KT M03/M04 A3026 RMK A01 T10321043  RH  092%=      5-min Rain = 0
KEA1 090204Z 15006KT M03/M04 A3026 RMK A01 T10331044  RH  092%=      5-min Rain = 0
KEA1 090205Z 15006KT M03/M04 A3026 RMK A01 T10331044  RH  092%=      5-min Rain = 0
KEA1 090206Z 15007KT M03/M04 A3026 RMK A01 T10331044  RH  092%=      5-min Rain = 0
KEA1 090207Z 15007KT M03/M04 A3026 RMK A01 T10341044  RH  093%=      5-min Rain = 0
KEA1 090208Z 15007KT M03/M04 A3026 RMK A01 T10331043  RH  093%=      5-min Rain = 0
KEA1 090209Z 15007KT M03/M04 A3026 RMK A01 T10341044  RH  093%=      5-min Rain = 0
KEA1 090210Z 15007KT M03/M05 A3026 RMK A01 T10341045  RH  093%=      5-min Rain = 0
KEA1 090211Z 15007KT M03/M05 A3026 RMK A01 T10341045  RH  093%=      5-min Rain = 0
KEA1 090212Z 15007KT M04/M04 A3026 RMK A01 T10351044  RH  093%=      5-min Rain = 0
KEA1 090213Z 15007KT M03/M04 A3026 RMK A01 T10341044  RH  093%=      5-min Rain = 0
KEA1 090214Z 15007KT M03/M04 A3026 RMK A01 T10341044  RH  093%=      5-min Rain = 0
KEA1 090215Z 15007KT M04/M04 A3026 RMK A01 T10351044  RH  093%=      5-min Rain = 0
KEA1 090216Z 15007KT M04/M04 A3026 RMK A01 T10351044  RH  093%=      5-min Rain = 0
KEA1 090217Z 15007KT M04/M04 A3026 RMK A01 T10351044  RH  093%=      5-min Rain = 0
KEA1 090218Z 15007KT M03/M04 A3026 RMK A01 T10341043  RH  093%=      5-min Rain = 0
KEA1 090219Z 15007KT M03/M04 A3026 RMK A01 T10341043  RH  094%=      5-min Rain = 0
KEA1 090220Z 16007KT M03/M04 A3027 RMK A01 T10341043  RH  093%=      5-min Rain = 0
KEA1 090221Z 16006KT M03/M04 A3027 RMK A01 T10341043  RH  093%=      5-min Rain = 0
KEA1 090222Z 16006KT M03/M04 A3027 RMK A01 T10341044  RH  093%=      5-min Rain = 0
KEA1 090223Z 16007KT M04/M05 A3027 RMK A01 T10351045  RH  093%=      5-min Rain = 0
KEA1 090224Z 16007KT M04/M05 A3027 RMK A01 T10351045  RH  093%=      5-min Rain = 0
KEA1 090225Z 16007KT M04/M05 A3027 RMK A01 T10351045  RH  093%=      5-min Rain = 0
KEA1 090226Z 16007KT M04/M05 A3027 RMK A01 T10351045  RH  093%=      5-min Rain = 0
KEA1 090227Z 16007KT M04/M05 A3027 RMK A01 T10351045  RH  093%=      5-min Rain = 0
KEA1 090228Z 16006KT M04/M04 A3027 RMK A01 T10351044  RH  093%=      5-min Rain = 0
KEA1 090229Z 17006KT M04/M04 A3027 RMK A01 T10351044  RH  093%=      5-min Rain = 0
KEA1 090230Z 16006KT M04/M05 A3027 RMK A01 T10351045  RH  093%=      5-min Rain = 0
KEA1 090231Z 16006KT M04/M05 A3027 RMK A01 T10361045  RH  093%=      5-min Rain = 0
KEA1 090232Z 16006KT M04/M04 A3027 RMK A01 T10351044  RH  094%=      5-min Rain = 0
KEA1 090233Z 16006KT M04/M04 A3027 RMK A01 T10351044  RH  094%=      5-min Rain = 0
KEA1 090234Z 16006KT M04/M04 A3027 RMK A01 T10351044  RH  094%=      5-min Rain = 0
KEA1 090235Z 16007KT M04/M04 A3027 RMK A01 T10351043  RH  094%=      5-min Rain = 0
KEA1 090236Z 16007KT M03/M04 A3027 RMK A01 T10341043  RH  094%=      5-min Rain = 0
KEA1 090237Z 16007KT M04/M04 A3027 RMK A01 T10351043  RH  094%=      5-min Rain = 0
KEA1 090238Z 16007KT M04/M04 A3027 RMK A01 T10351044  RH  093%=      5-min Rain = 0
KEA1 090239Z 17007KT M04/M05 A3027 RMK A01 T10361046  RH  093%=      5-min Rain = 0
KEA1 090240Z 17007KT M04/M05 A3027 RMK A01 T10371047  RH  093%=      5-min Rain = 0
KEA1 090241Z 17007KT M04/M05 A3027 RMK A01 T10371047  RH  093%=      5-min Rain = 0
KEA1 090242Z 16007KT M04/M05 A3027 RMK A01 T10371047  RH  093%=      5-min Rain = 0
KEA1 090243Z 16007KT M04/M05 A3027 RMK A01 T10371046  RH  093%=      5-min Rain = 0
KEA1 090244Z 17007KT M04/M05 A3027 RMK A01 T10371046  RH  093%=      5-min Rain = 0
KEA1 090245Z 17007KT M04/M05 A3027 RMK A01 T10371046  RH  093%=      5-min Rain = 0
KEA1 090246Z 17007KT M04/M05 A3027 RMK A01 T10371047  RH  093%=      5-min Rain = 0
KEA1 090247Z 17006KT M04/M05 A3027 RMK A01 T10371046  RH  093%=      5-min Rain = 0
KEA1 090248Z 16006KT M04/M05 A3027 RMK A01 T10371047  RH  093%=      5-min Rain = 0
KEA1 090249Z 16006KT M04/M05 A3027 RMK A01 T10371047  RH  093%=      5-min Rain = 0
KEA1 090250Z 17006KT M04/M05 A3027 RMK A01 T10381047  RH  093%=      5-min Rain = 0
KEA1 090251Z 17007KT M04/M05 A3027 RMK A01 T10381048  RH  093%=      5-min Rain = 0
KEA1 090252Z 17007KT M04/M05 A3027 RMK A01 T10381048  RH  093%=      5-min Rain = 0
KEA1 090253Z 17007KT M04/M05 A3027 RMK A01 T10391049  RH  093%=      5-min Rain = 0
KEA1 090254Z 18006KT M04/M05 A3027 RMK A01 T10391049  RH  093%=      5-min Rain = 0
KEA1 090255Z 17007KT M04/M05 A3027 RMK A01 T10391048  RH  093%=      5-min Rain = 0
KEA1 090256Z 17007KT M04/M05 A3028 RMK A01 T10391048  RH  093%=      5-min Rain = 0
KEA1 090257Z 18007KT M04/M05 A3028 RMK A01 T10381047  RH  094%=      5-min Rain = 0
KEA1 090258Z 18007KT M04/M05 A3028 RMK A01 T10371046  RH  094%=      5-min Rain = 0
KEA1 090259Z 19007KT M04/M05 A3028 RMK A01 T10371046  RH  094%=      5-min Rain = 0
KEA1 090300Z 18008KT M04/M05 A3028 RMK A01 T10371046  RH  093%=      5-min Rain = 0
KEA1 090301Z 19008KT M04/M05 A3028 RMK A01 T10381047  RH  093%=      5-min Rain = 0
KEA1 090302Z 19006KT M04/M05 A3028 RMK A01 T10391049  RH  093%=      5-min Rain = 0
KEA1 090303Z 20005KT M04/M05 A3028 RMK A01 T10401050  RH  093%=      5-min Rain = 0
KEA1 090304Z 21003KT M04/M05 A3028 RMK A01 T10411052  RH  092%=      5-min Rain = 0
KEA1 090305Z 23003KT M04/M05 A3028 RMK A01 T10411051  RH  093%=      5-min Rain = 0
KEA1 090306Z 23004KT M04/M05 A3028 RMK A01 T10391048  RH  094%=      5-min Rain = 0
KEA1 090307Z 22004KT M04/M05 A3028 RMK A01 T10381047  RH  094%=      5-min Rain = 0
KEA1 090308Z 21004KT M04/M04 A3028 RMK A01 T10361044  RH  094%=      5-min Rain = 0
KEA1 090309Z 21004KT M03/M04 A3028 RMK A01 T10341042  RH  095%=      5-min Rain = 0
KEA1 090310Z 22005KT M03/M04 A3028 RMK A01 T10331040  RH  095%=      5-min Rain = 0
KEA1 090311Z 22005KT M03/M04 A3028 RMK A01 T10311038  RH  095%=      5-min Rain = 0
KEA1 090312Z 22005KT M03/M04 A3028 RMK A01 T10291037  RH  095%=      5-min Rain = 0
KEA1 090313Z 21006KT M03/M04 A3028 RMK A01 T10291036  RH  095%=      5-min Rain = 0
KEA1 090314Z 20005KT M03/M04 A3028 RMK A01 T10281036  RH  094%=      5-min Rain = 0
KEA1 090315Z 20006KT M03/M04 A3028 RMK A01 T10271036  RH  094%=      5-min Rain = 0
KEA1 090316Z 20006KT M03/M04 A3028 RMK A01 T10281037  RH  093%=      5-min Rain = 0
KEA1 090317Z 19006KT M03/M04 A3028 RMK A01 T10291039  RH  093%=      5-min Rain = 0
KEA1 090318Z 18006KT M03/M04 A3028 RMK A01 T10311042  RH  092%=      5-min Rain = 0
KEA1 090319Z 18006KT M03/M04 A3028 RMK A01 T10331044  RH  092%=      5-min Rain = 0
KEA1 090320Z 19006KT M03/M05 A3028 RMK A01 T10341046  RH  092%=      5-min Rain = 0
KEA1 090321Z 22004KT M04/M05 A3028 RMK A01 T10351046  RH  092%=      5-min Rain = 0
KEA1 090322Z 23004KT M04/M05 A3028 RMK A01 T10361046  RH  092%=      5-min Rain = 0
KEA1 090323Z 22004KT M03/M04 A3028 RMK A01 T10341043  RH  094%=      5-min Rain = 0
KEA1 090324Z 21004KT M03/M04 A3029 RMK A01 T10301037  RH  095%=      5-min Rain = 0
KEA1 090325Z 21006KT M03/M04 A3029 RMK A01 T10271035  RH  095%=      5-min Rain = 0
KEA1 090326Z 21005KT M03/M03 A3029 RMK A01 T10271034  RH  094%=      5-min Rain = 0
KEA1 090327Z 21005KT M03/M03 A3029 RMK A01 T10261034  RH  094%=      5-min Rain = 0
KEA1 090328Z 21007KT M03/M03 A3029 RMK A01 T10251034  RH  093%=      5-min Rain = 0
KEA1 090329Z 20008KT M03/M04 A3029 RMK A01 T10261036  RH  093%=      5-min Rain = 0
KEA1 090330Z 20007KT M03/M04 A3029 RMK A01 T10271037  RH  093%=      5-min Rain = 0
KEA1 090331Z 21006KT M03/M04 A3029 RMK A01 T10271037  RH  093%=      5-min Rain = 0
KEA1 090332Z 21005KT M03/M04 A3029 RMK A01 T10271037  RH  093%=      5-min Rain = 0
KEA1 090333Z 23004KT M03/M04 A3029 RMK A01 T10271037  RH  093%=      5-min Rain = 0
KEA1 090334Z 24005KT M03/M04 A3029 RMK A01 T10261036  RH  093%=      5-min Rain = 0
KEA1 090335Z 23006KT M02/M03 A3029 RMK A01 T10231033  RH  093%=      5-min Rain = 0
KEA1 090336Z 22005KT M02/M03 A3029 RMK A01 T10211029  RH  094%=      5-min Rain = 0
KEA1 090337Z 22005KT M02/M03 A3029 RMK A01 T10181028  RH  093%=      5-min Rain = 0
KEA1 090338Z 20005KT M02/M03 A3029 RMK A01 T10171029  RH  092%=      5-min Rain = 0
KEA1 090339Z 21004KT M02/M03 A3029 RMK A01 T10171030  RH  091%=      5-min Rain = 0
KEA1 090340Z 21005KT M02/M03 A3029 RMK A01 T10161029  RH  091%=      5-min Rain = 0
KEA1 090341Z 20007KT M02/M03 A3029 RMK A01 T10151028  RH  090%=      5-min Rain = 0
KEA1 090342Z 19007KT M01/M03 A3029 RMK A01 T10141029  RH  090%=      5-min Rain = 0
KEA1 090343Z 20006KT M01/M03 A3029 RMK A01 T10131028  RH  090%=      5-min Rain = 0
KEA1 090344Z 20006KT M01/M03 A3029 RMK A01 T10121029  RH  089%=      5-min Rain = 0
KEA1 090345Z 20005KT M01/M03 A3029 RMK A01 T10131030  RH  088%=      5-min Rain = 0
KEA1 090346Z 21006KT M01/M03 A3029 RMK A01 T10131030  RH  089%=      5-min Rain = 0
KEA1 090347Z 20007KT M01/M03 A3029 RMK A01 T10141032  RH  088%=      5-min Rain = 0
KEA1 090348Z 20007KT M02/M04 A3029 RMK A01 T10171035  RH  087%=      5-min Rain = 0
KEA1 090349Z 20006KT M02/M04 A3029 RMK A01 T10201038  RH  087%=      5-min Rain = 0
KEA1 090350Z 19007KT M02/M04 A3029 RMK A01 T10221039  RH  088%=      5-min Rain = 0
KEA1 090351Z 20006KT M02/M04 A3029 RMK A01 T10231039  RH  089%=      5-min Rain = 0
KEA1 090352Z 20006KT M03/M04 A3029 RMK A01 T10251040  RH  090%=      5-min Rain = 0
KEA1 090353Z 19007KT M03/M04 A3029 RMK A01 T10261041  RH  090%=      5-min Rain = 0
KEA1 090354Z 19007KT M03/M04 A3028 RMK A01 T10281042  RH  090%=      5-min Rain = 0
KEA1 090355Z 19007KT M03/M04 A3028 RMK A01 T10281042  RH  090%=      5-min Rain = 0
KEA1 090356Z 20008KT M03/M04 A3028 RMK A01 T10291043  RH  090%=      5-min Rain = 0
KEA1 090357Z 19008KT M03/M05 A3028 RMK A01 T10311045  RH  090%=      5-min Rain = 0
KEA1 090358Z 20007KT M03/M05 A3029 RMK A01 T10321046  RH  090%=      5-min Rain = 0
KEA1 090359Z 20007KT M03/M05 A3029 RMK A01 T10341047  RH  091%=      5-min Rain = 0
KEA1 090400Z 20008KT M04/M05 A3029 RMK A01 T10351047  RH  091%=      5-min Rain = 0
KEA1 090401Z 20008KT M04/M05 A3029 RMK A01 T10351047  RH  091%=      5-min Rain = 0
KEA1 090402Z 20006KT M04/M05 A3029 RMK A01 T10351047  RH  092%=      5-min Rain = 0
KEA1 090403Z 20006KT M04/M05 A3029 RMK A01 T10361047  RH  092%=      5-min Rain = 0
KEA1 090404Z 20008KT M04/M05 A3029 RMK A01 T10361048  RH  092%=      5-min Rain = 0
KEA1 090405Z 20007KT M04/M05 A3029 RMK A01 T10371048  RH  092%=      5-min Rain = 0
KEA1 090406Z 20006KT M04/M05 A3029 RMK A01 T10371048  RH  092%=      5-min Rain = 0
KEA1 090407Z 21006KT M04/M05 A3029 RMK A01 T10381049  RH  092%=      5-min Rain = 0
KEA1 090408Z 21007KT M04/M05 A3029 RMK A01 T10391050  RH  092%=      5-min Rain = 0
KEA1 090409Z 21006KT M04/M05 A3029 RMK A01 T10381049  RH  093%=      5-min Rain = 0
KEA1 090410Z 21006KT M04/M05 A3029 RMK A01 T10381047  RH  093%=      5-min Rain = 0
KEA1 090411Z 20008KT M04/M05 A3029 RMK A01 T10381047  RH  093%=      5-min Rain = 0
KEA1 090412Z 21007KT M04/M05 A3029 RMK A01 T10371047  RH  093%=      5-min Rain = 0
KEA1 090413Z 21009KT M04/M05 A3029 RMK A01 T10371046  RH  093%=      5-min Rain = 0
KEA1 090414Z 21008KT M04/M04 A3029 RMK A01 T10351044  RH  094%=      5-min Rain = 0
KEA1 090415Z 22008KT M03/M04 A3029 RMK A01 T10311039  RH  095%=      5-min Rain = 0
KEA1 090416Z 21008KT M03/M03 A3029 RMK A01 T10251031  RH  095%=      5-min Rain = 0
KEA1 090417Z 21008KT M02/M03 A3029 RMK A01 T10221029  RH  095%=      5-min Rain = 0
KEA1 090418Z 21007KT M02/M03 A3029 RMK A01 T10211030  RH  093%=      5-min Rain = 0
KEA1 090419Z 21006KT M02/M03 A3029 RMK A01 T10211032  RH  092%=      5-min Rain = 0
KEA1 090420Z 23005KT M02/M03 A3029 RMK A01 T10211034  RH  091%=      5-min Rain = 0
KEA1 090421Z 23005KT M02/M04 A3029 RMK A01 T10231036  RH  091%=      5-min Rain = 0
KEA1 090422Z 22006KT M03/M04 A3029 RMK A01 T10251038  RH  091%=      5-min Rain = 0
KEA1 090423Z 22006KT M03/M04 A3029 RMK A01 T10251037  RH  091%=      5-min Rain = 0
KEA1 090424Z 22006KT M03/M04 A3029 RMK A01 T10251038  RH  091%=      5-min Rain = 0
KEA1 090425Z 22007KT M03/M04 A3029 RMK A01 T10271040  RH  091%=      5-min Rain = 0
KEA1 090426Z 22007KT M03/M04 A303 RMK A01 T10261037  RH  092%=      5-min Rain = 0
KEA1 090427Z 22006KT M02/M03 A303 RMK A01 T10231033  RH  093%=      5-min Rain = 0
KEA1 090428Z 23006KT M02/M03 A303 RMK A01 T10231034  RH  092%=      5-min Rain = 0
KEA1 090429Z 22006KT M02/M04 A303 RMK A01 T10241036  RH  092%=      5-min Rain = 0
KEA1 090430Z 23005KT M02/M04 A303 RMK A01 T10241035  RH  092%=      5-min Rain = 0
KEA1 090431Z 22005KT M02/M04 A303 RMK A01 T10241036  RH  092%=      5-min Rain = 0
KEA1 090432Z 24005KT M03/M04 A303 RMK A01 T10251037  RH  092%=      5-min Rain = 0
KEA1 090433Z 24005KT M03/M04 A303 RMK A01 T10251036  RH  092%=      5-min Rain = 0
KEA1 090434Z 23005KT M03/M04 A303 RMK A01 T10251036  RH  092%=      5-min Rain = 0
KEA1 090435Z 22005KT M03/M04 A303 RMK A01 T10251036  RH  092%=      5-min Rain = 0
KEA1 090436Z 23004KT M03/M04 A303 RMK A01 T10251035  RH  092%=      5-min Rain = 0
KEA1 090437Z 23004KT M02/M04 A303 RMK A01 T10241035  RH  093%=      5-min Rain = 0
KEA1 090438Z 23005KT M02/M04 A303 RMK A01 T10241035  RH  093%=      5-min Rain = 0
KEA1 090439Z 23005KT M02/M03 A303 RMK A01 T10241034  RH  093%=      5-min Rain = 0
KEA1 090440Z 23004KT M02/M03 A303 RMK A01 T10241034  RH  092%=      5-min Rain = 0
KEA1 090441Z 24004KT M02/M04 A303 RMK A01 T10241035  RH  092%=      5-min Rain = 0
KEA1 090442Z 24004KT M02/M04 A303 RMK A01 T10241035  RH  092%=      5-min Rain = 0
KEA1 090443Z 23004KT M03/M04 A303 RMK A01 T10251037  RH  092%=      5-min Rain = 0
KEA1 090444Z 24004KT M03/M04 A303 RMK A01 T10261038  RH  092%=      5-min Rain = 0
KEA1 090445Z 25004KT M03/M04 A303 RMK A01 T10261038  RH  092%=      5-min Rain = 0
KEA1 090446Z 25005KT M03/M04 A303 RMK A01 T10271038  RH  092%=      5-min Rain = 0
KEA1 090447Z 25005KT M03/M04 A303 RMK A01 T10281040  RH  091%=      5-min Rain = 0
KEA1 090448Z 24004KT M03/M04 A303 RMK A01 T10301042  RH  091%=      5-min Rain = 0
KEA1 090449Z 25004KT M03/M04 A303 RMK A01 T10291042  RH  091%=      5-min Rain = 0
KEA1 090450Z 25005KT M03/M04 A303 RMK A01 T10301043  RH  091%=      5-min Rain = 0
KEA1 090451Z 25004KT M03/M05 A303 RMK A01 T10321046  RH  091%=      5-min Rain = 0
KEA1 090452Z 25005KT M03/M05 A303 RMK A01 T10341048  RH  090%=      5-min Rain = 0
KEA1 090453Z 25005KT M04/M05 A303 RMK A01 T10361049  RH  090%=      5-min Rain = 0
KEA1 090454Z 25006KT M04/M05 A303 RMK A01 T10361049  RH  091%=      5-min Rain = 0
KEA1 090455Z 25006KT M04/M05 A303 RMK A01 T10371050  RH  091%=      5-min Rain = 0
KEA1 090456Z 25006KT M04/M05 A303 RMK A01 T10381049  RH  092%=      5-min Rain = 0
KEA1 090457Z 25006KT M04/M05 A303 RMK A01 T10381049  RH  092%=      5-min Rain = 0
KEA1 090458Z 25007KT M04/M05 A303 RMK A01 T10371048  RH  093%=      5-min Rain = 0
KEA1 090459Z 25006KT M04/M05 A303 RMK A01 T10371047  RH  093%=      5-min Rain = 0
KEA1 090500Z 25006KT M04/M05 A303 RMK A01 T10361046  RH  093%=      5-min Rain = 0
KEA1 090501Z 26008KT M04/M05 A303 RMK A01 T10351045  RH  093%=      5-min Rain = 0
KEA1 090502Z 25007KT M04/M04 A303 RMK A01 T10351044  RH  093%=      5-min Rain = 0
KEA1 090503Z 25005KT M03/M04 A303 RMK A01 T10331042  RH  093%=      5-min Rain = 0
KEA1 090504Z 25005KT M03/M04 A303 RMK A01 T10331043  RH  093%=      5-min Rain = 0
KEA1 090505Z 25005KT M03/M04 A303 RMK A01 T10331044  RH  093%=      5-min Rain = 0
KEA1 090506Z 25005KT M03/M04 A303 RMK A01 T10341044  RH  093%=      5-min Rain = 0
KEA1 090507Z 26005KT M03/M04 A303 RMK A01 T10341044  RH  092%=      5-min Rain = 0
KEA1 090508Z 25004KT M03/M04 A303 RMK A01 T10341044  RH  093%=      5-min Rain = 0
KEA1 090509Z 24004KT M03/M04 A303 RMK A01 T10341044  RH  093%=      5-min Rain = 0
KEA1 090510Z 23005KT M03/M04 A303 RMK A01 T10341044  RH  093%=      5-min Rain = 0
KEA1 090511Z 24005KT M03/M04 A303 RMK A01 T10341043  RH  093%=      5-min Rain = 0
KEA1 090512Z 25005KT M03/M04 A303 RMK A01 T10321042  RH  093%=      5-min Rain = 0
KEA1 090513Z 25005KT M03/M04 A303 RMK A01 T10321041  RH  093%=      5-min Rain = 0
KEA1 090514Z 25005KT M03/M04 A303 RMK A01 T10311040  RH  093%=      5-min Rain = 0
KEA1 090515Z 25005KT M03/M04 A303 RMK A01 T10301040  RH  093%=      5-min Rain = 0
KEA1 090516Z 25006KT M03/M04 A303 RMK A01 T10301041  RH  093%=      5-min Rain = 0
KEA1 090517Z 24005KT M03/M04 A303 RMK A01 T10301040  RH  093%=      5-min Rain = 0
KEA1 090518Z 24004KT M03/M04 A303 RMK A01 T10301040  RH  093%=      5-min Rain = 0
KEA1 090519Z 25005KT M03/M04 A303 RMK A01 T10301040  RH  093%=      5-min Rain = 0
KEA1 090520Z 25006KT M03/M04 A303 RMK A01 T10301040  RH  092%=      5-min Rain = 0
KEA1 090521Z 25005KT M03/M04 A303 RMK A01 T10291040  RH  093%=      5-min Rain = 0
KEA1 090522Z 25006KT M03/M04 A303 RMK A01 T10291039  RH  093%=      5-min Rain = 0
KEA1 090523Z 25006KT M03/M04 A303 RMK A01 T10291039  RH  093%=      5-min Rain = 0
KEA1 090524Z 25006KT M03/M04 A303 RMK A01 T10291039  RH  093%=      5-min Rain = 0
KEA1 090525Z 24005KT M03/M04 A303 RMK A01 T10291040  RH  092%=      5-min Rain = 0
KEA1 090526Z 25005KT M03/M04 A303 RMK A01 T10301041  RH  092%=      5-min Rain = 0
KEA1 090527Z 25005KT M03/M04 A303 RMK A01 T10311042  RH  092%=      5-min Rain = 0
KEA1 090528Z 25005KT M03/M04 A303 RMK A01 T10311042  RH  092%=      5-min Rain = 0
KEA1 090529Z 25004KT M03/M04 A303 RMK A01 T10321042  RH  092%=      5-min Rain = 0
KEA1 090530Z 25005KT M03/M04 A303 RMK A01 T10331044  RH  092%=      5-min Rain = 0
KEA1 090531Z 26005KT M03/M05 A303 RMK A01 T10341045  RH  092%=      5-min Rain = 0
KEA1 090532Z 27005KT M03/M05 A303 RMK A01 T10341045  RH  092%=      5-min Rain = 0
KEA1 090533Z 26005KT M04/M05 A303 RMK A01 T10351045  RH  093%=      5-min Rain = 0
KEA1 090534Z 25005KT M04/M05 A303 RMK A01 T10351045  RH  093%=      5-min Rain = 0
KEA1 090535Z 25005KT M04/M05 A303 RMK A01 T10361045  RH  093%=      5-min Rain = 0
KEA1 090536Z 27006KT M04/M05 A303 RMK A01 T10351045  RH  093%=      5-min Rain = 0
KEA1 090537Z 27007KT M04/M05 A303 RMK A01 T10361045  RH  093%=      5-min Rain = 0
KEA1 090538Z 27006KT M04/M05 A303 RMK A01 T10361045  RH  094%=      5-min Rain = 0
KEA1 090539Z 27006KT M04/M05 A303 RMK A01 T10361045  RH  094%=      5-min Rain = 0
KEA1 090540Z 27006KT M04/M05 A303 RMK A01 T10361045  RH  094%=      5-min Rain = 0
KEA1 090541Z 27006KT M04/M05 A303 RMK A01 T10361045  RH  094%=      5-min Rain = 0
KEA1 090542Z 26006KT M04/M05 A303 RMK A01 T10371046  RH  094%=      5-min Rain = 0
KEA1 090543Z 26006KT M04/M05 A303 RMK A01 T10381047  RH  094%=      5-min Rain = 0
KEA1 090544Z 26005KT M04/M05 A303 RMK A01 T10381046  RH  094%=      5-min Rain = 0
KEA1 090545Z 26006KT M04/M05 A303 RMK A01 T10381046  RH  094%=      5-min Rain = 0
KEA1 090546Z 26007KT M04/M05 A303 RMK A01 T10381046  RH  094%=      5-min Rain = 0
KEA1 090547Z 26008KT M04/M05 A303 RMK A01 T10371045  RH  094%=      5-min Rain = 0
KEA1 090548Z 26008KT M04/M04 A303 RMK A01 T10371044  RH  094%=      5-min Rain = 0
KEA1 090549Z 26008KT M04/M05 A303 RMK A01 T10381046  RH  094%=      5-min Rain = 0
KEA1 090550Z 26008KT M04/M05 A303 RMK A01 T10391048  RH  094%=      5-min Rain = 0
KEA1 090551Z 26006KT M04/M05 A303 RMK A01 T10401049  RH  093%=      5-min Rain = 0
KEA1 090552Z 23004KT M04/M05 A303 RMK A01 T10411050  RH  093%=      5-min Rain = 0
KEA1 090553Z 22004KT M04/M05 A303 RMK A01 T10411049  RH  094%=      5-min Rain = 0
KEA1 090554Z 23004KT M04/M05 A303 RMK A01 T10401047  RH  094%=      5-min Rain = 0
KEA1 090555Z 25004KT M04/M05 A303 RMK A01 T10381045  RH  095%=      5-min Rain = 0
KEA1 090556Z 26004KT M04/M04 A303 RMK A01 T10371044  RH  095%=      5-min Rain = 0
KEA1 090557Z 26006KT M04/M05 A303 RMK A01 T10381045  RH  094%=      5-min Rain = 0
KEA1 090558Z 26006KT M04/M05 A303 RMK A01 T10391047  RH  094%=      5-min Rain = 0
KEA1 090559Z 26006KT M04/M05 A303 RMK A01 T10411050  RH  093%=      5-min Rain = 0

Page generated in 0.0794 seconds.